Time,TemperatureF,DewpointF,PressureIn,WindDirection,WindDirectionDegrees,WindSpeedMPH,WindSpeedGustMPH,Humidity,HourlyPrecipIn,Conditions,Clouds,dailyrainin,SoftwareType,DateUTC
2013-01-03 00:00:00,14.8,2.0,30.08,NNW,342,0.0,0.0,56,0.00,,SKC,0.00,VWS V14.01,2013-01-03 05:00:00,
2013-01-03 00:01:00,14.6,1.8,30.08,NNW,342,0.0,0.0,56,0.00,,SKC,0.00,VWS V14.01,2013-01-03 05:01:00,
2013-01-03 00:02:00,14.6,1.8,30.08,NNW,340,0.0,0.0,56,0.00,,SKC,0.00,VWS V14.01,2013-01-03 05:02:00,
2013-01-03 00:05:00,14.6,1.8,30.08,NNW,329,0.0,0.0,56,0.00,,SKC,0.00,VWS V14.01,2013-01-03 05:05:00,
2013-01-03 00:06:00,14.4,1.6,30.08,NNW,330,0.0,0.0,56,0.00,,SKC,0.00,VWS V14.01,2013-01-03 05:06:00,
2013-01-03 00:07:00,14.4,1.6,30.08,NW,325,0.0,2.0,56,0.00,,SKC,0.00,VWS V14.01,2013-01-03 05:07:00,
2013-01-03 00:10:00,14.3,1.1,30.08,NW,326,0.0,1.0,55,0.00,,SKC,0.00,VWS V14.01,2013-01-03 05:10:00,
2013-01-03 00:11:00,14.3,0.7,30.08,NW,322,0.0,1.0,54,0.00,,SKC,0.00,VWS V14.01,2013-01-03 05:11:00,
2013-01-03 00:12:00,14.3,0.7,30.08,North,353,7.0,7.0,54,0.00,,SKC,0.00,VWS V14.01,2013-01-03 05:12:00,
2013-01-03 00:15:00,14.3,0.3,30.08,NNW,347,0.0,2.0,53,0.00,,SKC,0.00,VWS V14.01,2013-01-03 05:15:00,
2013-01-03 00:16:00,14.3,0.3,30.08,NNW,347,0.0,2.0,53,0.00,,SKC,0.00,VWS V14.01,2013-01-03 05:16:00,
2013-01-03 00:17:00,14.3,0.3,30.08,NNW,347,0.0,2.0,53,0.00,,SKC,0.00,VWS V14.01,2013-01-03 05:17:00,
2013-01-03 00:18:00,14.3,0.3,30.08,NNW,347,0.0,2.0,53,0.00,,SKC,0.00,VWS V14.01,2013-01-03 05:18:00,
2013-01-03 00:20:00,14.1,0.1,30.08,North,354,0.0,5.0,53,0.00,,SKC,0.00,VWS V14.01,2013-01-03 05:20:00,
2013-01-03 00:21:00,14.1,0.1,30.08,North,354,0.0,0.0,53,0.00,,SKC,0.00,VWS V14.01,2013-01-03 05:21:00,
2013-01-03 00:22:00,14.1,0.1,30.08,NNW,332,0.0,0.0,53,0.00,,SKC,0.00,VWS V14.01,2013-01-03 05:22:00,
2013-01-03 00:23:00,14.1,0.5,30.08,NNW,333,0.0,0.0,54,0.00,,SKC,0.00,VWS V14.01,2013-01-03 05:23:00,
2013-01-03 00:25:00,14.1,0.5,30.08,NNW,342,0.0,0.0,54,0.00,,SKC,0.00,VWS V14.01,2013-01-03 05:25:00,
2013-01-03 00:26:00,14.0,0.0,30.08,NNW,340,0.0,0.0,53,0.00,,SKC,0.00,VWS V14.01,2013-01-03 05:26:00,
2013-01-03 00:27:00,14.0,0.4,30.08,NNW,344,11.0,11.0,54,0.00,,SKC,0.00,VWS V14.01,2013-01-03 05:27:00,
2013-01-03 00:28:00,14.0,0.0,30.08,NW,323,0.0,11.0,53,0.00,,SKC,0.00,VWS V14.01,2013-01-03 05:28:00,
2013-01-03 00:30:00,14.0,-0.4,30.08,NW,323,3.0,11.0,52,0.00,,SKC,0.00,VWS V14.01,2013-01-03 05:30:00,
2013-01-03 00:31:00,13.8,-0.6,30.08,North,359,0.0,6.0,52,0.00,,SKC,0.00,VWS V14.01,2013-01-03 05:31:00,
2013-01-03 00:32:00,13.8,-0.6,30.08,North,350,6.0,6.0,52,0.00,,SKC,0.00,VWS V14.01,2013-01-03 05:32:00,
2013-01-03 00:33:00,13.8,-0.2,30.08,NNW,343,4.0,7.0,53,0.00,,SKC,0.00,VWS V14.01,2013-01-03 05:33:00,
2013-01-03 00:34:00,13.8,-0.2,30.08,NW,320,0.0,7.0,53,0.00,,SKC,0.00,VWS V14.01,2013-01-03 05:34:00,
2013-01-03 00:35:00,13.8,-0.2,30.08,North,359,0.0,7.0,53,0.00,,SKC,0.00,VWS V14.01,2013-01-03 05:35:00,
2013-01-03 00:36:00,13.8,-0.2,30.08,SSE,154,0.0,0.0,53,0.00,,SKC,0.00,VWS V14.01,2013-01-03 05:36:00,
2013-01-03 00:37:00,13.6,-0.3,30.08,North,350,2.0,6.0,53,0.00,,SKC,0.00,VWS V14.01,2013-01-03 05:37:00,
2013-01-03 00:38:00,13.6,-0.8,30.08,NNW,347,3.0,7.0,52,0.00,,SKC,0.00,VWS V14.01,2013-01-03 05:38:00,
2013-01-03 00:39:00,13.6,-0.8,30.08,NNW,344,0.0,7.0,52,0.00,,SKC,0.00,VWS V14.01,2013-01-03 05:39:00,
2013-01-03 00:40:00,13.6,-0.8,30.08,NNW,343,0.0,7.0,52,0.00,,SKC,0.00,VWS V14.01,2013-01-03 05:40:00,
2013-01-03 00:41:00,13.6,-0.8,30.08,SSE,161,0.0,6.0,52,0.00,,SKC,0.00,VWS V14.01,2013-01-03 05:41:00,
2013-01-03 00:42:00,13.6,0.1,30.08,NNW,346,0.0,6.0,54,0.00,,SKC,0.00,VWS V14.01,2013-01-03 05:42:00,
2013-01-03 00:44:00,13.6,0.1,30.08,NNW,343,2.0,6.0,54,0.00,,SKC,0.00,VWS V14.01,2013-01-03 05:44:00,
2013-01-03 00:45:00,13.6,0.1,30.08,NNW,343,2.0,6.0,54,0.00,,SKC,0.00,VWS V14.01,2013-01-03 05:45:00,
2013-01-03 00:47:00,13.5,0.0,30.08,NNW,344,6.0,6.0,54,0.00,,SKC,0.00,VWS V14.01,2013-01-03 05:47:00,
2013-01-03 00:49:00,13.5,-0.4,30.08,NNW,346,0.0,0.0,53,0.00,,SKC,0.00,VWS V14.01,2013-01-03 05:49:00,
2013-01-03 00:50:00,13.5,-0.4,30.08,NNW,346,0.0,0.0,53,0.00,,SKC,0.00,VWS V14.01,2013-01-03 05:50:00,
2013-01-03 00:52:00,13.5,0.0,30.08,NNW,340,0.0,0.0,54,0.00,,SKC,0.00,VWS V14.01,2013-01-03 05:52:00,
2013-01-03 00:53:00,13.3,-0.2,30.08,NNW,340,0.0,0.0,54,0.00,,SKC,0.00,VWS V14.01,2013-01-03 05:53:00,
2013-01-03 00:54:00,13.3,-0.2,30.08,North,350,0.0,1.0,54,0.00,,SKC,0.00,VWS V14.01,2013-01-03 05:54:00,
2013-01-03 00:55:00,13.3,-0.2,30.08,NW,318,0.0,3.0,54,0.00,,SKC,0.00,VWS V14.01,2013-01-03 05:55:00,
2013-01-03 00:58:00,13.3,-0.6,30.08,NNW,347,3.0,13.0,53,0.00,,SKC,0.00,VWS V14.01,2013-01-03 05:58:00,
2013-01-03 01:00:00,13.1,-0.8,30.09,NNW,340,2.0,5.0,53,0.00,,SKC,0.00,VWS V14.01,2013-01-03 06:00:00,
2013-01-03 01:03:00,13.1,-0.8,30.09,North,354,0.0,5.0,53,0.00,,SKC,0.00,VWS V14.01,2013-01-03 06:03:00,
2013-01-03 01:05:00,13.1,-0.8,30.09,North,354,0.0,0.0,53,0.00,,SKC,0.00,VWS V14.01,2013-01-03 06:05:00,
2013-01-03 01:08:00,12.9,-1.0,30.09,NNW,330,2.0,6.0,53,0.00,,SKC,0.00,VWS V14.01,2013-01-03 06:08:00,
2013-01-03 01:09:00,12.9,-1.0,30.09,NNW,330,2.0,6.0,53,0.00,,SKC,0.00,VWS V14.01,2013-01-03 06:09:00,
2013-01-03 01:10:00,12.9,-1.0,30.09,NW,305,0.0,1.0,53,0.00,,SKC,0.00,VWS V14.01,2013-01-03 06:10:00,
2013-01-03 01:13:00,12.8,-1.5,30.09,NNW,329,0.0,11.0,52,0.00,,SKC,0.00,VWS V14.01,2013-01-03 06:13:00,
2013-01-03 01:14:00,12.8,-1.5,30.09,NNW,329,0.0,11.0,52,0.00,,SKC,0.00,VWS V14.01,2013-01-03 06:14:00,
2013-01-03 01:15:00,12.8,-1.9,30.09,NNW,337,1.0,3.0,51,0.00,,SKC,0.00,VWS V14.01,2013-01-03 06:15:00,
2013-01-03 01:19:00,12.6,-2.5,30.09,NNW,347,0.0,10.0,50,0.00,,SKC,0.00,VWS V14.01,2013-01-03 06:19:00,
2013-01-03 01:20:00,12.6,-2.5,30.09,NNW,328,4.0,10.0,50,0.00,,SKC,0.00,VWS V14.01,2013-01-03 06:20:00,
2013-01-03 01:21:00,12.6,-2.5,30.09,NNW,330,1.0,10.0,50,0.00,,SKC,0.00,VWS V14.01,2013-01-03 06:21:00,
2013-01-03 01:24:00,12.6,-2.1,30.09,NNW,336,1.0,10.0,51,0.00,,SKC,0.00,VWS V14.01,2013-01-03 06:24:00,
2013-01-03 01:25:00,12.4,-2.7,30.09,NNW,336,0.0,0.0,50,0.00,,SKC,0.00,VWS V14.01,2013-01-03 06:25:00,
2013-01-03 01:26:00,12.4,-3.1,30.09,WNW,292,0.0,2.0,49,0.00,,SKC,0.00,VWS V14.01,2013-01-03 06:26:00,
2013-01-03 01:29:00,12.4,-2.7,30.10,NNW,343,1.0,3.0,50,0.00,,SKC,0.00,VWS V14.01,2013-01-03 06:29:00,
2013-01-03 01:30:00,12.4,-2.7,30.10,North,352,3.0,10.0,50,0.00,,SKC,0.00,VWS V14.01,2013-01-03 06:30:00,
2013-01-03 01:31:00,12.3,-2.8,30.10,NNW,333,0.0,10.0,50,0.00,,SKC,0.00,VWS V14.01,2013-01-03 06:31:00,
2013-01-03 01:34:00,12.3,-3.2,30.10,NW,325,0.0,0.0,49,0.00,,SKC,0.00,VWS V14.01,2013-01-03 06:34:00,
2013-01-03 01:35:00,12.3,-3.2,30.10,NW,325,0.0,0.0,49,0.00,,SKC,0.00,VWS V14.01,2013-01-03 06:35:00,
2013-01-03 01:36:00,12.1,-3.4,30.10,North,349,3.0,6.0,49,0.00,,SKC,0.00,VWS V14.01,2013-01-03 06:36:00,
2013-01-03 01:37:00,12.1,-3.4,30.10,NNW,344,0.0,7.0,49,0.00,,SKC,0.00,VWS V14.01,2013-01-03 06:37:00,
2013-01-03 01:40:00,12.1,-3.4,30.10,NNW,339,4.0,5.0,49,0.00,,SKC,0.00,VWS V14.01,2013-01-03 06:40:00,
2013-01-03 01:41:00,11.9,-3.6,30.10,NNW,329,1.0,5.0,49,0.00,,SKC,0.00,VWS V14.01,2013-01-03 06:41:00,
2013-01-03 01:42:00,11.9,-3.6,30.10,NW,319,0.0,5.0,49,0.00,,SKC,0.00,VWS V14.01,2013-01-03 06:42:00,
2013-01-03 01:45:00,11.9,-4.0,30.11,NNW,330,0.0,5.0,48,0.00,,SKC,0.00,VWS V14.01,2013-01-03 06:45:00,
2013-01-03 01:46:00,11.7,-4.2,30.11,NNW,330,0.0,5.0,48,0.00,,SKC,0.00,VWS V14.01,2013-01-03 06:46:00,
2013-01-03 01:48:00,11.7,-3.8,30.11,NW,319,0.0,5.0,49,0.00,,SKC,0.00,VWS V14.01,2013-01-03 06:48:00,
2013-01-03 01:50:00,11.6,-3.8,30.11,NW,320,0.0,0.0,49,0.00,,SKC,0.00,VWS V14.01,2013-01-03 06:50:00,
2013-01-03 01:51:00,11.6,-3.8,30.11,NW,319,0.0,3.0,49,0.00,,SKC,0.00,VWS V14.01,2013-01-03 06:51:00,
2013-01-03 01:52:00,11.6,-3.8,30.11,NW,323,1.0,3.0,49,0.00,,SKC,0.00,VWS V14.01,2013-01-03 06:52:00,
2013-01-03 01:53:00,11.6,-3.8,30.11,West,277,2.0,3.0,49,0.00,,SKC,0.00,VWS V14.01,2013-01-03 06:53:00,
2013-01-03 01:55:00,11.4,-4.0,30.11,NNW,332,2.0,12.0,49,0.00,,SKC,0.00,VWS V14.01,2013-01-03 06:55:00,
2013-01-03 01:56:00,11.4,-4.0,30.11,NW,318,0.0,12.0,49,0.00,,SKC,0.00,VWS V14.01,2013-01-03 06:56:00,
2013-01-03 01:57:00,11.4,-4.0,30.11,NW,320,0.0,12.0,49,0.00,,SKC,0.00,VWS V14.01,2013-01-03 06:57:00,
2013-01-03 01:58:00,11.4,-4.0,30.11,NNW,332,0.0,12.0,49,0.00,,SKC,0.00,VWS V14.01,2013-01-03 06:58:00,
2013-01-03 02:00:00,11.2,-4.2,30.11,NW,323,1.0,12.0,49,0.00,,SKC,0.00,VWS V14.01,2013-01-03 07:00:00,
2013-01-03 02:01:00,11.2,-3.8,30.11,NNW,337,0.0,1.0,50,0.00,,SKC,0.00,VWS V14.01,2013-01-03 07:01:00,
2013-01-03 02:03:00,11.2,-3.8,30.11,NNW,344,0.0,1.0,50,0.00,,SKC,0.00,VWS V14.01,2013-01-03 07:03:00,
2013-01-03 02:05:00,11.1,-3.9,30.11,NNW,344,0.0,3.0,50,0.00,,SKC,0.00,VWS V14.01,2013-01-03 07:05:00,
2013-01-03 02:06:00,11.1,-4.3,30.11,NNW,343,0.0,1.0,49,0.00,,SKC,0.00,VWS V14.01,2013-01-03 07:06:00,
2013-01-03 02:07:00,11.1,-4.3,30.11,NNW,344,0.0,1.0,49,0.00,,SKC,0.00,VWS V14.01,2013-01-03 07:07:00,
2013-01-03 02:08:00,11.1,-4.3,30.11,North,359,2.0,6.0,49,0.00,,SKC,0.00,VWS V14.01,2013-01-03 07:08:00,
2013-01-03 02:10:00,10.9,-4.5,30.11,NNW,346,3.0,6.0,49,0.00,,SKC,0.00,VWS V14.01,2013-01-03 07:10:00,
2013-01-03 02:11:00,10.9,-4.5,30.11,NNW,340,0.0,4.0,49,0.00,,SKC,0.00,VWS V14.01,2013-01-03 07:11:00,
2013-01-03 02:12:00,10.9,-4.5,30.11,North,350,0.0,4.0,49,0.00,,SKC,0.00,VWS V14.01,2013-01-03 07:12:00,
2013-01-03 02:13:00,10.9,-3.7,30.11,NW,312,0.0,4.0,51,0.00,,SKC,0.00,VWS V14.01,2013-01-03 07:13:00,
2013-01-03 02:14:00,10.9,-3.7,30.11,NNW,342,0.0,0.0,51,0.00,,SKC,0.00,VWS V14.01,2013-01-03 07:14:00,
2013-01-03 02:15:00,10.9,-3.7,30.11,NNW,340,0.0,4.0,51,0.00,,SKC,0.00,VWS V14.01,2013-01-03 07:15:00,
2013-01-03 02:17:00,10.7,-3.9,30.11,NNW,343,0.0,3.0,51,0.00,,SKC,0.00,VWS V14.01,2013-01-03 07:17:00,
2013-01-03 02:18:00,10.7,-3.9,30.11,North,350,0.0,3.0,51,0.00,,SKC,0.00,VWS V14.01,2013-01-03 07:18:00,
2013-01-03 02:19:00,10.7,-3.9,30.11,NNW,336,0.0,3.0,51,0.00,,SKC,0.00,VWS V14.01,2013-01-03 07:19:00,
2013-01-03 02:20:00,10.7,-3.9,30.11,NNW,336,0.0,3.0,51,0.00,,SKC,0.00,VWS V14.01,2013-01-03 07:20:00,
2013-01-03 02:22:00,10.7,-3.9,30.11,NNW,336,0.0,3.0,51,0.00,,SKC,0.00,VWS V14.01,2013-01-03 07:22:00,
2013-01-03 02:23:00,10.7,-4.3,30.11,NNW,339,0.0,3.0,50,0.00,,SKC,0.00,VWS V14.01,2013-01-03 07:23:00,
2013-01-03 02:25:00,10.5,-4.0,30.11,North,354,0.0,0.0,51,0.00,,SKC,0.00,VWS V14.01,2013-01-03 07:25:00,
2013-01-03 02:26:00,10.5,-3.6,30.11,North,356,0.0,1.0,52,0.00,,SKC,0.00,VWS V14.01,2013-01-03 07:26:00,
2013-01-03 02:28:00,10.5,-4.0,30.11,NNW,347,2.0,5.0,51,0.00,,SKC,0.00,VWS V14.01,2013-01-03 07:28:00,
2013-01-03 02:30:00,10.5,-4.4,30.11,NNW,337,0.0,5.0,50,0.00,,SKC,0.00,VWS V14.01,2013-01-03 07:30:00,
2013-01-03 02:31:00,10.5,-4.4,30.11,NNW,337,0.0,0.0,50,0.00,,SKC,0.00,VWS V14.01,2013-01-03 07:31:00,
2013-01-03 02:33:00,10.5,-4.0,30.11,NW,308,2.0,2.0,51,0.00,,SKC,0.00,VWS V14.01,2013-01-03 07:33:00,
2013-01-03 02:35:00,10.4,-4.1,30.11,NNW,343,1.0,6.0,51,0.00,,SKC,0.00,VWS V14.01,2013-01-03 07:35:00,
2013-01-03 02:36:00,10.4,-3.7,30.11,NNW,342,0.0,1.0,52,0.00,,SKC,0.00,VWS V14.01,2013-01-03 07:36:00,
2013-01-03 02:38:00,10.4,-3.7,30.11,NNW,342,0.0,1.0,52,0.00,,SKC,0.00,VWS V14.01,2013-01-03 07:38:00,
2013-01-03 02:40:00,10.4,-4.1,30.11,NNW,343,0.0,1.0,51,0.00,,SKC,0.00,VWS V14.01,2013-01-03 07:40:00,
2013-01-03 02:42:00,10.4,-4.1,30.11,NNW,347,2.0,2.0,51,0.00,,SKC,0.00,VWS V14.01,2013-01-03 07:42:00,
2013-01-03 02:43:00,10.4,-4.1,30.11,North,352,7.0,7.0,51,0.00,,SKC,0.00,VWS V14.01,2013-01-03 07:43:00,
2013-01-03 02:44:00,10.2,-4.3,30.10,North,352,6.0,7.0,51,0.00,,SKC,0.00,VWS V14.01,2013-01-03 07:44:00,
2013-01-03 02:45:00,10.2,-4.3,30.10,North,356,3.0,7.0,51,0.00,,SKC,0.00,VWS V14.01,2013-01-03 07:45:00,
2013-01-03 02:47:00,10.2,-4.7,30.10,North,353,2.0,5.0,50,0.00,,SKC,0.00,VWS V14.01,2013-01-03 07:47:00,
2013-01-03 02:49:00,10.2,-4.3,30.10,NNW,342,0.0,5.0,51,0.00,,SKC,0.00,VWS V14.01,2013-01-03 07:49:00,
2013-01-03 02:50:00,10.2,-4.3,30.10,NNW,342,0.0,5.0,51,0.00,,SKC,0.00,VWS V14.01,2013-01-03 07:50:00,
2013-01-03 02:52:00,10.2,-4.3,30.10,North,356,3.0,5.0,51,0.00,,SKC,0.00,VWS V14.01,2013-01-03 07:52:00,
2013-01-03 02:54:00,10.2,-4.7,30.10,NNW,335,0.0,5.0,50,0.00,,SKC,0.00,VWS V14.01,2013-01-03 07:54:00,
2013-01-03 02:55:00,10.2,-4.7,30.10,NNW,335,0.0,0.0,50,0.00,,SKC,0.00,VWS V14.01,2013-01-03 07:55:00,
2013-01-03 02:58:00,10.0,-4.5,30.10,NNW,339,0.0,0.0,51,0.00,,SKC,0.00,VWS V14.01,2013-01-03 07:58:00,
2013-01-03 02:59:00,10.0,-4.9,30.10,NNW,343,0.0,0.0,50,0.00,,SKC,0.00,VWS V14.01,2013-01-03 07:59:00,
2013-01-03 03:00:00,10.0,-4.9,30.10,NNW,343,2.0,3.0,50,0.00,,SKC,0.00,VWS V14.01,2013-01-03 08:00:00,
2013-01-03 03:03:00,10.0,-5.8,30.10,North,359,0.0,3.0,48,0.00,,SKC,0.00,VWS V14.01,2013-01-03 08:03:00,
2013-01-03 03:04:00,10.0,-5.8,30.10,NNW,340,0.0,0.0,48,0.00,,SKC,0.00,VWS V14.01,2013-01-03 08:04:00,
2013-01-03 03:05:00,9.9,-5.9,30.10,NNW,340,0.0,0.0,48,0.00,,SKC,0.00,VWS V14.01,2013-01-03 08:05:00,
2013-01-03 03:08:00,9.9,-5.9,30.10,North,352,0.0,2.0,48,0.00,,SKC,0.00,VWS V14.01,2013-01-03 08:08:00,
2013-01-03 03:09:00,9.9,-5.4,30.10,North,352,0.0,2.0,49,0.00,,SKC,0.00,VWS V14.01,2013-01-03 08:09:00,
2013-01-03 03:10:00,9.9,-5.4,30.10,North,352,0.0,0.0,49,0.00,,SKC,0.00,VWS V14.01,2013-01-03 08:10:00,
2013-01-03 03:13:00,9.7,-5.6,30.10,North,349,0.0,3.0,49,0.00,,SKC,0.00,VWS V14.01,2013-01-03 08:13:00,
2013-01-03 03:14:00,9.7,-5.6,30.10,North,349,3.0,3.0,49,0.00,,SKC,0.00,VWS V14.01,2013-01-03 08:14:00,
2013-01-03 03:15:00,9.7,-5.6,30.10,NNW,339,4.0,4.0,49,0.00,,SKC,0.00,VWS V14.01,2013-01-03 08:15:00,
2013-01-03 03:16:00,9.7,-6.0,30.10,NW,316,0.0,4.0,48,0.00,,SKC,0.00,VWS V14.01,2013-01-03 08:16:00,
2013-01-03 03:20:00,9.7,-6.0,30.10,NW,320,2.0,2.0,48,0.00,,SKC,0.00,VWS V14.01,2013-01-03 08:20:00,
2013-01-03 03:21:00,9.5,-6.2,30.10,NW,306,0.0,3.0,48,0.00,,SKC,0.00,VWS V14.01,2013-01-03 08:21:00,
2013-01-03 03:25:00,9.5,-6.2,30.10,North,349,0.0,0.0,48,0.00,,SKC,0.00,VWS V14.01,2013-01-03 08:25:00,
2013-01-03 03:26:00,9.5,-6.2,30.10,North,349,0.0,0.0,48,0.00,,SKC,0.00,VWS V14.01,2013-01-03 08:26:00,
2013-01-03 03:30:00,9.3,-6.0,30.10,NNW,347,0.0,2.0,49,0.00,,SKC,0.00,VWS V14.01,2013-01-03 08:30:00,
2013-01-03 03:31:00,9.3,-6.4,30.10,North,359,5.0,6.0,48,0.00,,SKC,0.00,VWS V14.01,2013-01-03 08:31:00,
2013-01-03 03:32:00,9.3,-6.4,30.10,NNW,347,0.0,6.0,48,0.00,,SKC,0.00,VWS V14.01,2013-01-03 08:32:00,
2013-01-03 03:35:00,9.2,-6.1,30.10,NNW,336,0.0,0.0,49,0.00,,SKC,0.00,VWS V14.01,2013-01-03 08:35:00,
2013-01-03 03:36:00,9.2,-6.1,30.10,NNW,337,0.0,0.0,49,0.00,,SKC,0.00,VWS V14.01,2013-01-03 08:36:00,
2013-01-03 03:37:00,9.2,-5.7,30.10,North,353,0.0,1.0,50,0.00,,SKC,0.00,VWS V14.01,2013-01-03 08:37:00,
2013-01-03 03:40:00,9.0,-6.7,30.10,NNW,340,4.0,6.0,48,0.00,,SKC,0.00,VWS V14.01,2013-01-03 08:40:00,
2013-01-03 03:41:00,9.0,-6.7,30.10,NNW,340,0.0,6.0,48,0.00,,SKC,0.00,VWS V14.01,2013-01-03 08:41:00,
2013-01-03 03:42:00,9.0,-6.7,30.10,NNW,339,0.0,6.0,48,0.00,,SKC,0.00,VWS V14.01,2013-01-03 08:42:00,
2013-01-03 03:43:00,9.0,-6.7,30.10,NNW,342,0.0,6.0,48,0.00,,SKC,0.00,VWS V14.01,2013-01-03 08:43:00,
2013-01-03 03:45:00,9.0,-5.8,30.09,NNW,342,2.0,2.0,50,0.00,,SKC,0.00,VWS V14.01,2013-01-03 08:45:00,
2013-01-03 03:46:00,8.8,-6.0,30.09,NNW,332,1.0,2.0,50,0.00,,SKC,0.00,VWS V14.01,2013-01-03 08:46:00,
2013-01-03 03:47:00,8.8,-6.4,30.09,NNW,343,0.0,3.0,49,0.00,,SKC,0.00,VWS V14.01,2013-01-03 08:47:00,
2013-01-03 03:48:00,8.8,-6.4,30.09,NNW,346,0.0,6.0,49,0.00,,SKC,0.00,VWS V14.01,2013-01-03 08:48:00,
2013-01-03 03:50:00,8.8,-6.4,30.09,NNW,339,0.0,1.0,49,0.00,,SKC,0.00,VWS V14.01,2013-01-03 08:50:00,
2013-01-03 03:51:00,8.6,-6.6,30.09,NNW,340,1.0,1.0,49,0.00,,SKC,0.00,VWS V14.01,2013-01-03 08:51:00,
2013-01-03 03:52:00,8.6,-6.6,30.09,NNW,347,5.0,6.0,49,0.00,,SKC,0.00,VWS V14.01,2013-01-03 08:52:00,
2013-01-03 03:54:00,8.6,-6.6,30.09,NNW,347,1.0,6.0,49,0.00,,SKC,0.00,VWS V14.01,2013-01-03 08:54:00,
2013-01-03 03:55:00,8.6,-6.6,30.09,North,349,0.0,6.0,49,0.00,,SKC,0.00,VWS V14.01,2013-01-03 08:55:00,
2013-01-03 03:56:00,8.6,-6.6,30.09,NNW,339,0.0,7.0,49,0.00,,SKC,0.00,VWS V14.01,2013-01-03 08:56:00,
2013-01-03 03:57:00,8.6,-6.2,30.09,NNW,337,0.0,7.0,50,0.00,,SKC,0.00,VWS V14.01,2013-01-03 08:57:00,
2013-01-03 03:59:00,8.4,-6.4,30.08,North,354,6.0,6.0,50,0.00,,SKC,0.00,VWS V14.01,2013-01-03 08:59:00,
2013-01-03 04:00:00,8.4,-6.4,30.08,North,350,3.0,7.0,50,0.00,,SKC,0.00,VWS V14.01,2013-01-03 09:00:00,
2013-01-03 04:02:00,8.4,-6.8,30.08,North,356,1.0,6.0,49,0.00,,SKC,0.00,VWS V14.01,2013-01-03 09:02:00,
2013-01-03 04:03:00,8.4,-6.4,30.08,North,350,3.0,6.0,50,0.00,,SKC,0.00,VWS V14.01,2013-01-03 09:03:00,
2013-01-03 04:05:00,8.3,-6.5,30.08,NNW,346,2.0,7.0,50,0.00,,SKC,0.00,VWS V14.01,2013-01-03 09:05:00,
2013-01-03 04:06:00,8.3,-6.5,30.08,North,357,3.0,3.0,50,0.00,,SKC,0.00,VWS V14.01,2013-01-03 09:06:00,
2013-01-03 04:07:00,8.3,-6.5,30.08,NNW,346,0.0,6.0,50,0.00,,SKC,0.00,VWS V14.01,2013-01-03 09:07:00,
2013-01-03 04:08:00,8.3,-6.5,30.08,NNW,346,0.0,6.0,50,0.00,,SKC,0.00,VWS V14.01,2013-01-03 09:08:00,
2013-01-03 04:10:00,8.3,-6.5,30.08,North,350,0.0,6.0,50,0.00,,SKC,0.00,VWS V14.01,2013-01-03 09:10:00,
2013-01-03 04:11:00,8.3,-6.5,30.08,North,359,0.0,0.0,50,0.00,,SKC,0.00,VWS V14.01,2013-01-03 09:11:00,
2013-01-03 04:13:00,8.3,-6.1,30.08,North,357,0.0,0.0,51,0.00,,SKC,0.00,VWS V14.01,2013-01-03 09:13:00,
2013-01-03 04:14:00,8.3,-6.1,30.09,North,353,0.0,0.0,51,0.00,,SKC,0.00,VWS V14.01,2013-01-03 09:14:00,
2013-01-03 04:15:00,8.1,-6.3,30.09,North,352,3.0,3.0,51,0.00,,SKC,0.00,VWS V14.01,2013-01-03 09:15:00,
2013-01-03 04:16:00,8.1,-6.7,30.09,SSE,161,2.0,3.0,50,0.00,,SKC,0.00,VWS V14.01,2013-01-03 09:16:00,
2013-01-03 04:18:00,8.1,-6.3,30.09,SSE,154,2.0,3.0,51,0.00,,SKC,0.00,VWS V14.01,2013-01-03 09:18:00,
2013-01-03 04:19:00,8.1,-6.3,30.09,North,359,0.0,3.0,51,0.00,,SKC,0.00,VWS V14.01,2013-01-03 09:19:00,
2013-01-03 04:20:00,8.1,-6.3,30.09,North,359,0.0,3.0,51,0.00,,SKC,0.00,VWS V14.01,2013-01-03 09:20:00,
2013-01-03 04:21:00,8.1,-6.3,30.09,NNW,339,0.0,2.0,51,0.00,,SKC,0.00,VWS V14.01,2013-01-03 09:21:00,
2013-01-03 04:24:00,7.9,-6.1,30.09,NNW,339,0.0,2.0,52,0.00,,SKC,0.00,VWS V14.01,2013-01-03 09:24:00,
2013-01-03 04:25:00,7.9,-6.1,30.09,NNW,339,0.0,0.0,52,0.00,,SKC,0.00,VWS V14.01,2013-01-03 09:25:00,
2013-01-03 04:27:00,7.9,-6.1,30.09,SW,217,0.0,0.0,52,0.00,,SKC,0.00,VWS V14.01,2013-01-03 09:27:00,
2013-01-03 04:29:00,7.7,-6.7,30.09,North,350,0.0,1.0,51,0.00,,SKC,0.00,VWS V14.01,2013-01-03 09:29:00,
2013-01-03 04:30:00,7.7,-6.2,30.09,NNW,340,0.0,1.0,52,0.00,,SKC,0.00,VWS V14.01,2013-01-03 09:30:00,
2013-01-03 04:33:00,7.7,-6.7,30.09,North,352,8.0,8.0,51,0.00,,SKC,0.00,VWS V14.01,2013-01-03 09:33:00,
2013-01-03 04:34:00,7.7,-6.7,30.09,North,354,2.0,8.0,51,0.00,,SKC,0.00,VWS V14.01,2013-01-03 09:34:00,
2013-01-03 04:35:00,7.7,-6.7,30.09,NNW,332,0.0,1.0,51,0.00,,SKC,0.00,VWS V14.01,2013-01-03 09:35:00,
2013-01-03 04:39:00,7.6,-6.7,30.09,North,353,0.0,6.0,51,0.00,,SKC,0.00,VWS V14.01,2013-01-03 09:39:00,
2013-01-03 04:40:00,7.6,-6.7,30.09,NNW,343,1.0,6.0,51,0.00,,SKC,0.00,VWS V14.01,2013-01-03 09:40:00,
2013-01-03 04:41:00,7.6,-6.7,30.09,NW,325,0.0,1.0,51,0.00,,SKC,0.00,VWS V14.01,2013-01-03 09:41:00,
2013-01-03 04:44:00,7.6,-6.7,30.09,NNW,344,0.0,3.0,51,0.00,,SKC,0.00,VWS V14.01,2013-01-03 09:44:00,
2013-01-03 04:45:00,7.6,-6.7,30.09,NNW,344,0.0,0.0,51,0.00,,SKC,0.00,VWS V14.01,2013-01-03 09:45:00,
2013-01-03 04:46:00,7.6,-6.7,30.09,NNW,343,0.0,0.0,51,0.00,,SKC,0.00,VWS V14.01,2013-01-03 09:46:00,
2013-01-03 04:49:00,7.4,-6.9,30.09,North,349,0.0,2.0,51,0.00,,SKC,0.00,VWS V14.01,2013-01-03 09:49:00,
2013-01-03 04:50:00,7.4,-6.9,30.09,North,350,0.0,0.0,51,0.00,,SKC,0.00,VWS V14.01,2013-01-03 09:50:00,
2013-01-03 04:51:00,7.4,-6.9,30.09,North,349,1.0,5.0,51,0.00,,SKC,0.00,VWS V14.01,2013-01-03 09:51:00,
2013-01-03 04:54:00,7.4,-6.9,30.09,NNW,343,0.0,5.0,51,0.00,,SKC,0.00,VWS V14.01,2013-01-03 09:54:00,
2013-01-03 04:55:00,7.4,-6.9,30.09,NNW,343,0.0,0.0,51,0.00,,SKC,0.00,VWS V14.01,2013-01-03 09:55:00,
2013-01-03 04:56:00,7.4,-6.5,30.09,NNW,347,1.0,1.0,52,0.00,,SKC,0.00,VWS V14.01,2013-01-03 09:56:00,
2013-01-03 05:00:00,7.4,-6.9,30.08,NNW,347,0.0,0.0,51,0.00,,SKC,0.00,VWS V14.01,2013-01-03 10:00:00,
2013-01-03 05:02:00,7.4,-6.5,30.08,NNW,347,0.0,0.0,52,0.00,,SKC,0.00,VWS V14.01,2013-01-03 10:02:00,
2013-01-03 05:05:00,7.2,-6.7,30.08,NNW,347,0.0,0.0,52,0.00,,SKC,0.00,VWS V14.01,2013-01-03 10:05:00,
2013-01-03 05:07:00,7.2,-6.7,30.08,North,353,1.0,2.0,52,0.00,,SKC,0.00,VWS V14.01,2013-01-03 10:07:00,
2013-01-03 05:10:00,7.2,-6.7,30.08,North,359,0.0,0.0,52,0.00,,SKC,0.00,VWS V14.01,2013-01-03 10:10:00,
2013-01-03 05:11:00,7.2,-6.7,30.08,North,359,0.0,0.0,52,0.00,,SKC,0.00,VWS V14.01,2013-01-03 10:11:00,
2013-01-03 05:12:00,7.2,-6.3,30.08,North,349,1.0,1.0,53,0.00,,SKC,0.00,VWS V14.01,2013-01-03 10:12:00,
2013-01-03 05:15:00,7.2,-6.3,30.09,North,349,0.0,0.0,53,0.00,,SKC,0.00,VWS V14.01,2013-01-03 10:15:00,
2013-01-03 05:16:00,7.2,-6.3,30.09,North,349,0.0,0.0,53,0.00,,SKC,0.00,VWS V14.01,2013-01-03 10:16:00,
2013-01-03 05:17:00,7.2,-6.3,30.09,NNW,347,0.0,0.0,53,0.00,,SKC,0.00,VWS V14.01,2013-01-03 10:17:00,
2013-01-03 05:20:00,7.2,-6.3,30.09,North,349,0.0,0.0,53,0.00,,SKC,0.00,VWS V14.01,2013-01-03 10:20:00,
2013-01-03 05:21:00,7.0,-6.9,30.09,NNW,340,0.0,0.0,52,0.00,,SKC,0.00,VWS V14.01,2013-01-03 10:21:00,
2013-01-03 05:22:00,7.0,-6.9,30.09,NNW,340,0.0,0.0,52,0.00,,SKC,0.00,VWS V14.01,2013-01-03 10:22:00,
2013-01-03 05:23:00,7.0,-6.9,30.09,NNW,337,0.0,0.0,52,0.00,,SKC,0.00,VWS V14.01,2013-01-03 10:23:00,
2013-01-03 05:25:00,7.0,-6.5,30.09,North,352,0.0,0.0,53,0.00,,SKC,0.00,VWS V14.01,2013-01-03 10:25:00,
2013-01-03 05:27:00,7.0,-6.5,30.09,North,352,0.0,0.0,53,0.00,,SKC,0.00,VWS V14.01,2013-01-03 10:27:00,
2013-01-03 05:28:00,7.0,-6.5,30.09,North,352,0.0,0.0,53,0.00,,SKC,0.00,VWS V14.01,2013-01-03 10:28:00,
2013-01-03 05:30:00,7.0,-6.5,30.09,North,352,0.0,0.0,53,0.00,,SKC,0.00,VWS V14.01,2013-01-03 10:30:00,
2013-01-03 05:31:00,7.0,-6.5,30.09,North,352,0.0,0.0,53,0.00,,SKC,0.00,VWS V14.01,2013-01-03 10:31:00,
2013-01-03 05:33:00,7.0,-6.5,30.09,North,352,0.0,0.0,53,0.00,,SKC,0.00,VWS V14.01,2013-01-03 10:33:00,
2013-01-03 05:35:00,6.9,-6.6,30.09,North,352,0.0,0.0,53,0.00,,SKC,0.00,VWS V14.01,2013-01-03 10:35:00,
2013-01-03 05:36:00,6.9,-6.6,30.09,North,352,0.0,0.0,53,0.00,,SKC,0.00,VWS V14.01,2013-01-03 10:36:00,
2013-01-03 05:38:00,6.9,-5.8,30.09,North,352,0.0,0.0,55,0.00,,SKC,0.00,VWS V14.01,2013-01-03 10:38:00,
2013-01-03 05:39:00,6.9,-5.8,30.09,North,352,0.0,0.0,55,0.00,,SKC,0.00,VWS V14.01,2013-01-03 10:39:00,
2013-01-03 05:40:00,6.9,-5.8,30.09,North,353,0.0,0.0,55,0.00,,SKC,0.00,VWS V14.01,2013-01-03 10:40:00,
2013-01-03 05:41:00,6.9,-6.6,30.09,North,352,0.0,0.0,53,0.00,,SKC,0.00,VWS V14.01,2013-01-03 10:41:00,
2013-01-03 05:44:00,6.7,-6.8,30.09,North,352,0.0,0.0,53,0.00,,SKC,0.00,VWS V14.01,2013-01-03 10:44:00,
2013-01-03 05:45:00,6.7,-6.8,30.09,North,352,0.0,0.0,53,0.00,,SKC,0.00,VWS V14.01,2013-01-03 10:45:00,
2013-01-03 05:46:00,6.7,-6.8,30.09,North,352,0.0,0.0,53,0.00,,SKC,0.00,VWS V14.01,2013-01-03 10:46:00,
2013-01-03 05:49:00,6.7,-7.2,30.09,North,352,0.0,0.0,52,0.00,,SKC,0.00,VWS V14.01,2013-01-03 10:49:00,
2013-01-03 05:50:00,6.7,-7.2,30.09,North,352,0.0,0.0,52,0.00,,SKC,0.00,VWS V14.01,2013-01-03 10:50:00,
2013-01-03 05:51:00,6.5,-7.4,30.09,North,352,0.0,0.0,52,0.00,,SKC,0.00,VWS V14.01,2013-01-03 10:51:00,
2013-01-03 05:54:00,6.5,-7.0,30.09,North,352,0.0,0.0,53,0.00,,SKC,0.00,VWS V14.01,2013-01-03 10:54:00,
2013-01-03 05:55:00,6.5,-7.0,30.09,North,352,0.0,0.0,53,0.00,,SKC,0.00,VWS V14.01,2013-01-03 10:55:00,
2013-01-03 05:56:00,6.5,-7.0,30.09,North,352,0.0,0.0,53,0.00,,SKC,0.00,VWS V14.01,2013-01-03 10:56:00,
2013-01-03 05:59:00,6.3,-6.8,30.09,North,352,0.0,0.0,54,0.00,,SKC,0.00,VWS V14.01,2013-01-03 10:59:00,
2013-01-03 06:00:00,6.3,-6.4,30.09,North,352,0.0,0.0,55,0.00,,SKC,0.00,VWS V14.01,2013-01-03 11:00:00,
2013-01-03 06:02:00,6.3,-6.4,30.09,North,352,0.0,0.0,55,0.00,,SKC,0.00,VWS V14.01,2013-01-03 11:02:00,
2013-01-03 06:04:00,6.3,-6.4,30.09,North,352,0.0,0.0,55,0.00,,SKC,0.00,VWS V14.01,2013-01-03 11:04:00,
2013-01-03 06:05:00,6.1,-6.6,30.09,North,352,0.0,0.0,55,0.00,,SKC,0.00,VWS V14.01,2013-01-03 11:05:00,
2013-01-03 06:07:00,6.1,-6.2,30.09,North,352,0.0,0.0,56,0.00,,SKC,0.00,VWS V14.01,2013-01-03 11:07:00,
2013-01-03 06:09:00,6.1,-6.2,30.09,North,352,0.0,0.0,56,0.00,,SKC,0.00,VWS V14.01,2013-01-03 11:09:00,
2013-01-03 06:10:00,6.1,-6.2,30.09,North,352,0.0,0.0,56,0.00,,SKC,0.00,VWS V14.01,2013-01-03 11:10:00,
2013-01-03 06:13:00,6.1,-7.3,30.09,North,352,0.0,0.0,53,0.00,,SKC,0.00,VWS V14.01,2013-01-03 11:13:00,
2013-01-03 06:14:00,6.1,-7.3,30.09,North,352,0.0,0.0,53,0.00,,SKC,0.00,VWS V14.01,2013-01-03 11:14:00,
2013-01-03 06:15:00,6.1,-7.3,30.09,North,352,0.0,0.0,53,0.00,,SKC,0.00,VWS V14.01,2013-01-03 11:15:00,
2013-01-03 06:18:00,6.1,-7.0,30.09,North,352,0.0,0.0,54,0.00,,SKC,0.00,VWS V14.01,2013-01-03 11:18:00,
2013-01-03 06:19:00,6.0,-6.3,30.09,North,352,0.0,0.0,56,0.00,,SKC,0.00,VWS V14.01,2013-01-03 11:19:00,
2013-01-03 06:20:00,6.0,-6.3,30.09,North,352,0.0,0.0,56,0.00,,SKC,0.00,VWS V14.01,2013-01-03 11:20:00,
2013-01-03 06:23:00,6.0,-5.9,30.09,North,352,0.0,0.0,57,0.00,,SKC,0.00,VWS V14.01,2013-01-03 11:23:00,
2013-01-03 06:24:00,6.0,-5.9,30.09,North,352,0.0,0.0,57,0.00,,SKC,0.00,VWS V14.01,2013-01-03 11:24:00,
2013-01-03 06:25:00,6.0,-5.9,30.09,North,352,0.0,0.0,57,0.00,,SKC,0.00,VWS V14.01,2013-01-03 11:25:00,
2013-01-03 06:29:00,6.0,-5.9,30.10,North,352,0.0,0.0,57,0.00,,SKC,0.00,VWS V14.01,2013-01-03 11:29:00,
2013-01-03 06:30:00,6.0,-6.3,30.10,North,352,0.0,0.0,56,0.00,,SKC,0.00,VWS V14.01,2013-01-03 11:30:00,
2013-01-03 06:35:00,5.8,-6.1,30.10,North,352,0.0,0.0,57,0.00,,SKC,0.00,VWS V14.01,2013-01-03 11:35:00,
2013-01-03 06:40:00,5.8,-6.9,30.10,North,353,0.0,0.0,55,0.00,,SKC,0.00,VWS V14.01,2013-01-03 11:40:00,
2013-01-03 06:41:00,5.6,-7.4,30.10,North,352,0.0,0.0,54,0.00,,SKC,0.00,VWS V14.01,2013-01-03 11:41:00,
2013-01-03 06:45:00,5.6,-7.1,30.10,North,352,0.0,0.0,55,0.00,,SKC,0.00,VWS V14.01,2013-01-03 11:45:00,
2013-01-03 06:46:00,5.6,-7.1,30.10,North,352,0.0,0.0,55,0.00,,SKC,0.00,VWS V14.01,2013-01-03 11:46:00,
2013-01-03 06:47:00,5.6,-7.1,30.10,North,352,0.0,0.0,55,0.00,,SKC,0.00,VWS V14.01,2013-01-03 11:47:00,
2013-01-03 06:50:00,5.4,-6.9,30.10,North,352,0.0,0.0,56,0.00,,SKC,0.00,VWS V14.01,2013-01-03 11:50:00,
2013-01-03 06:51:00,5.4,-6.9,30.10,North,352,0.0,0.0,56,0.00,,SKC,0.00,VWS V14.01,2013-01-03 11:51:00,
2013-01-03 06:52:00,5.4,-6.9,30.10,North,352,0.0,0.0,56,0.00,,SKC,0.00,VWS V14.01,2013-01-03 11:52:00,
2013-01-03 06:55:00,5.4,-6.5,30.10,North,352,0.0,0.0,57,0.00,,SKC,0.00,VWS V14.01,2013-01-03 11:55:00,
2013-01-03 06:56:00,5.4,-6.5,30.10,North,353,0.0,0.0,57,0.00,,SKC,0.00,VWS V14.01,2013-01-03 11:56:00,
2013-01-03 06:57:00,5.4,-6.5,30.10,North,352,0.0,0.0,57,0.00,,SKC,0.00,VWS V14.01,2013-01-03 11:57:00,
2013-01-03 07:00:00,5.2,-7.1,30.10,North,352,0.0,0.0,56,0.00,,SKC,0.00,VWS V14.01,2013-01-03 12:00:00,
2013-01-03 07:02:00,5.2,-7.1,30.10,North,352,0.0,0.0,56,0.00,,SKC,0.00,VWS V14.01,2013-01-03 12:02:00,
2013-01-03 07:05:00,5.2,-7.4,30.10,North,352,0.0,0.0,55,0.00,,SKC,0.00,VWS V14.01,2013-01-03 12:05:00,
2013-01-03 07:06:00,5.2,-7.4,30.10,North,352,0.0,0.0,55,0.00,,SKC,0.00,VWS V14.01,2013-01-03 12:06:00,
2013-01-03 07:07:00,5.0,-7.6,30.10,North,352,0.0,0.0,55,0.00,,SKC,0.00,VWS V14.01,2013-01-03 12:07:00,
2013-01-03 07:10:00,5.0,-7.6,30.10,North,352,0.0,0.0,55,0.00,,SKC,0.00,VWS V14.01,2013-01-03 12:10:00,
2013-01-03 07:11:00,5.0,-7.6,30.10,North,352,0.0,0.0,55,0.00,,SKC,0.00,VWS V14.01,2013-01-03 12:11:00,
2013-01-03 07:12:00,5.0,-7.6,30.10,North,352,0.0,0.0,55,0.00,,SKC,0.00,VWS V14.01,2013-01-03 12:12:00,
2013-01-03 07:15:00,5.0,-7.3,30.11,North,352,0.0,0.0,56,0.00,,SKC,0.00,VWS V14.01,2013-01-03 12:15:00,
2013-01-03 07:16:00,5.0,-7.3,30.11,North,352,0.0,0.0,56,0.00,,SKC,0.00,VWS V14.01,2013-01-03 12:16:00,
2013-01-03 07:17:00,5.0,-7.3,30.11,North,352,0.0,0.0,56,0.00,,SKC,0.00,VWS V14.01,2013-01-03 12:17:00,
2013-01-03 07:20:00,4.8,-7.4,30.11,North,352,0.0,0.0,56,0.00,,SKC,0.00,VWS V14.01,2013-01-03 12:20:00,
2013-01-03 07:21:00,4.8,-7.4,30.11,North,352,0.0,0.0,56,0.00,,SKC,0.00,VWS V14.01,2013-01-03 12:21:00,
2013-01-03 07:22:00,4.8,-7.4,30.11,North,352,0.0,0.0,56,0.00,,SKC,0.00,VWS V14.01,2013-01-03 12:22:00,
2013-01-03 07:23:00,4.8,-7.4,30.11,North,352,0.0,0.0,56,0.00,,SKC,0.00,VWS V14.01,2013-01-03 12:23:00,
2013-01-03 07:25:00,4.8,-7.4,30.11,North,352,0.0,0.0,56,0.00,,SKC,0.00,VWS V14.01,2013-01-03 12:25:00,
2013-01-03 07:26:00,4.7,-7.5,30.11,North,352,0.0,0.0,56,0.00,,SKC,0.00,VWS V14.01,2013-01-03 12:26:00,
2013-01-03 07:27:00,4.7,-7.5,30.11,North,352,0.0,0.0,56,0.00,,SKC,0.00,VWS V14.01,2013-01-03 12:27:00,
2013-01-03 07:28:00,4.7,-7.5,30.11,North,352,0.0,0.0,56,0.00,,SKC,0.00,VWS V14.01,2013-01-03 12:28:00,
2013-01-03 07:30:00,4.7,-7.5,30.11,North,352,0.0,0.0,56,0.00,,SKC,0.00,VWS V14.01,2013-01-03 12:30:00,
2013-01-03 07:32:00,4.8,-7.4,30.11,North,352,0.0,0.0,56,0.00,,SKC,0.00,VWS V14.01,2013-01-03 12:32:00,
2013-01-03 07:33:00,4.8,-7.4,30.11,North,352,0.0,0.0,56,0.00,,SKC,0.00,VWS V14.01,2013-01-03 12:33:00,
2013-01-03 07:35:00,4.8,-7.4,30.11,North,352,0.0,0.0,56,0.00,,SKC,0.00,VWS V14.01,2013-01-03 12:35:00,
2013-01-03 07:37:00,5.0,-7.3,30.11,North,352,0.0,0.0,56,0.00,,SKC,0.00,VWS V14.01,2013-01-03 12:37:00,
2013-01-03 07:38:00,5.0,-7.3,30.11,North,352,0.0,0.0,56,0.00,,SKC,0.00,VWS V14.01,2013-01-03 12:38:00,
2013-01-03 07:39:00,5.0,-7.3,30.11,North,352,0.0,0.0,56,0.00,,SKC,0.00,VWS V14.01,2013-01-03 12:39:00,
2013-01-03 07:40:00,5.0,-7.6,30.11,North,352,0.0,0.0,55,0.00,,SKC,0.00,VWS V14.01,2013-01-03 12:40:00,
2013-01-03 07:42:00,5.0,-7.6,30.11,North,352,0.0,0.0,55,0.00,,SKC,0.00,VWS V14.01,2013-01-03 12:42:00,
2013-01-03 07:43:00,5.0,-7.6,30.11,North,352,0.0,0.0,55,0.00,,SKC,0.00,VWS V14.01,2013-01-03 12:43:00,
2013-01-03 07:44:00,5.0,-7.6,30.11,North,352,0.0,0.0,55,0.00,,SKC,0.00,VWS V14.01,2013-01-03 12:44:00,
2013-01-03 07:45:00,5.0,-7.6,30.11,North,352,0.0,0.0,55,0.00,,SKC,0.00,VWS V14.01,2013-01-03 12:45:00,
2013-01-03 07:48:00,5.2,-7.1,30.11,North,353,0.0,0.0,56,0.00,,SKC,0.00,VWS V14.01,2013-01-03 12:48:00,
2013-01-03 07:49:00,5.2,-7.1,30.11,North,352,0.0,0.0,56,0.00,,SKC,0.00,VWS V14.01,2013-01-03 12:49:00,
2013-01-03 07:50:00,5.2,-7.4,30.11,North,353,0.0,0.0,55,0.00,,SKC,0.00,VWS V14.01,2013-01-03 12:50:00,
2013-01-03 07:53:00,5.4,-7.2,30.11,North,352,0.0,0.0,55,0.00,,SKC,0.00,VWS V14.01,2013-01-03 12:53:00,
2013-01-03 07:54:00,5.4,-7.2,30.11,North,352,0.0,0.0,55,0.00,,SKC,0.00,VWS V14.01,2013-01-03 12:54:00,
2013-01-03 07:55:00,5.4,-7.2,30.11,North,352,0.0,0.0,55,0.00,,SKC,0.00,VWS V14.01,2013-01-03 12:55:00,
2013-01-03 07:58:00,5.6,-6.7,30.11,North,352,0.0,0.0,56,0.00,,SKC,0.00,VWS V14.01,2013-01-03 12:58:00,
2013-01-03 07:59:00,5.6,-6.7,30.11,North,352,0.0,0.0,56,0.00,,SKC,0.00,VWS V14.01,2013-01-03 12:59:00,
2013-01-03 08:00:00,5.6,-6.7,30.11,North,352,0.0,0.0,56,0.00,,SKC,0.00,VWS V14.01,2013-01-03 13:00:00,
2013-01-03 08:03:00,5.8,-6.9,30.11,North,353,0.0,0.0,55,0.00,,SKC,0.00,VWS V14.01,2013-01-03 13:03:00,
2013-01-03 08:04:00,5.8,-6.9,30.11,North,352,0.0,0.0,55,0.00,,SKC,0.00,VWS V14.01,2013-01-03 13:04:00,
2013-01-03 08:05:00,5.8,-6.9,30.11,North,352,0.0,0.0,55,0.00,,SKC,0.00,VWS V14.01,2013-01-03 13:05:00,
2013-01-03 08:09:00,6.1,-7.0,30.11,North,352,0.0,0.0,54,0.00,,SKC,0.00,VWS V14.01,2013-01-03 13:09:00,
2013-01-03 08:10:00,6.1,-7.0,30.11,North,352,0.0,0.0,54,0.00,,SKC,0.00,VWS V14.01,2013-01-03 13:10:00,
2013-01-03 08:11:00,6.1,-7.0,30.11,North,352,0.0,0.0,54,0.00,,SKC,0.00,VWS V14.01,2013-01-03 13:11:00,
2013-01-03 08:14:00,6.5,-7.0,30.11,North,352,0.0,0.0,53,0.00,,SKC,0.00,VWS V14.01,2013-01-03 13:14:00,
2013-01-03 08:15:00,6.5,-7.0,30.11,North,353,0.0,0.0,53,0.00,,SKC,0.00,VWS V14.01,2013-01-03 13:15:00,
2013-01-03 08:16:00,6.5,-7.0,30.11,North,352,0.0,0.0,53,0.00,,SKC,0.00,VWS V14.01,2013-01-03 13:16:00,
2013-01-03 08:19:00,6.9,-6.6,30.11,North,352,0.0,2.0,53,0.00,,SKC,0.00,VWS V14.01,2013-01-03 13:19:00,
2013-01-03 08:20:00,6.9,-7.0,30.11,North,352,0.0,0.0,52,0.00,,SKC,0.00,VWS V14.01,2013-01-03 13:20:00,
2013-01-03 08:21:00,6.9,-7.0,30.11,North,352,0.0,0.0,52,0.00,,SKC,0.00,VWS V14.01,2013-01-03 13:21:00,
2013-01-03 08:24:00,7.2,-7.1,30.11,North,350,0.0,0.0,51,0.00,,SKC,0.00,VWS V14.01,2013-01-03 13:24:00,
2013-01-03 08:25:00,7.2,-6.7,30.11,North,352,0.0,0.0,52,0.00,,SKC,0.00,VWS V14.01,2013-01-03 13:25:00,
2013-01-03 08:26:00,7.2,-6.7,30.11,North,352,0.0,0.0,52,0.00,,SKC,0.00,VWS V14.01,2013-01-03 13:26:00,
2013-01-03 08:27:00,7.4,-6.5,30.11,North,350,0.0,0.0,52,0.00,,SKC,0.00,VWS V14.01,2013-01-03 13:27:00,
2013-01-03 08:29:00,7.6,-6.3,30.11,North,350,0.0,0.0,52,0.00,,SKC,0.00,VWS V14.01,2013-01-03 13:29:00,
2013-01-03 08:30:00,7.6,-6.3,30.11,North,350,0.0,0.0,52,0.00,,SKC,0.00,VWS V14.01,2013-01-03 13:30:00,
2013-01-03 08:31:00,7.6,-6.3,30.11,North,352,0.0,0.0,52,0.00,,SKC,0.00,VWS V14.01,2013-01-03 13:31:00,
2013-01-03 08:32:00,7.6,-7.2,30.11,North,350,0.0,0.0,50,0.00,,SKC,0.00,VWS V14.01,2013-01-03 13:32:00,
2013-01-03 08:35:00,7.7,-7.1,30.11,WNW,291,0.0,0.0,50,0.00,,SKC,0.00,VWS V14.01,2013-01-03 13:35:00,
2013-01-03 08:36:00,7.7,-7.1,30.11,WNW,294,0.0,0.0,50,0.00,,SKC,0.00,VWS V14.01,2013-01-03 13:36:00,
2013-01-03 08:37:00,7.9,-6.9,30.11,WNW,294,0.0,0.0,50,0.00,,SKC,0.00,VWS V14.01,2013-01-03 13:37:00,
2013-01-03 08:40:00,8.1,-6.7,30.11,WNW,294,0.0,0.0,50,0.00,,SKC,0.00,VWS V14.01,2013-01-03 13:40:00,
2013-01-03 08:41:00,8.1,-7.1,30.11,WNW,295,0.0,0.0,49,0.00,,SKC,0.00,VWS V14.01,2013-01-03 13:41:00,
2013-01-03 08:42:00,8.1,-7.1,30.11,WNW,294,0.0,0.0,49,0.00,,SKC,0.00,VWS V14.01,2013-01-03 13:42:00,
2013-01-03 08:43:00,8.3,-6.9,30.11,NNW,344,0.0,0.0,49,0.00,,SKC,0.00,VWS V14.01,2013-01-03 13:43:00,
2013-01-03 08:45:00,8.4,-7.2,30.11,SE,143,0.0,2.0,48,0.00,,SKC,0.00,VWS V14.01,2013-01-03 13:45:00,
2013-01-03 08:46:00,8.4,-7.2,30.11,NW,315,0.0,0.0,48,0.00,,SKC,0.00,VWS V14.01,2013-01-03 13:46:00,
2013-01-03 08:47:00,8.6,-7.1,30.11,NW,316,0.0,0.0,48,0.00,,SKC,0.00,VWS V14.01,2013-01-03 13:47:00,
2013-01-03 08:48:00,8.6,-6.6,30.11,NW,315,0.0,0.0,49,0.00,,SKC,0.00,VWS V14.01,2013-01-03 13:48:00,
2013-01-03 08:50:00,8.8,-6.4,30.11,NW,318,0.0,0.0,49,0.00,,SKC,0.00,VWS V14.01,2013-01-03 13:50:00,
2013-01-03 08:51:00,8.8,-6.4,30.11,NW,318,0.0,0.0,49,0.00,,SKC,0.00,VWS V14.01,2013-01-03 13:51:00,
2013-01-03 08:52:00,9.0,-6.7,30.11,SE,143,0.0,2.0,48,0.00,,SKC,0.00,VWS V14.01,2013-01-03 13:52:00,
2013-01-03 08:53:00,9.0,-6.7,30.11,SSE,147,0.0,2.0,48,0.00,,SKC,0.00,VWS V14.01,2013-01-03 13:53:00,
2013-01-03 08:55:00,9.0,-6.7,30.11,SE,144,0.0,2.0,48,0.00,,SKC,0.00,VWS V14.01,2013-01-03 13:55:00,
2013-01-03 08:56:00,9.2,-6.5,30.11,SSE,154,0.0,0.0,48,0.00,,SKC,0.00,VWS V14.01,2013-01-03 13:56:00,
2013-01-03 08:57:00,9.2,-6.5,30.11,SE,143,0.0,0.0,48,0.00,,SKC,0.00,VWS V14.01,2013-01-03 13:57:00,
2013-01-03 08:58:00,9.3,-6.4,30.11,SSE,152,0.0,0.0,48,0.00,,SKC,0.00,VWS V14.01,2013-01-03 13:58:00,
2013-01-03 09:00:00,9.3,-6.4,30.10,South,171,1.0,5.0,48,0.00,,SKC,0.00,VWS V14.01,2013-01-03 14:00:00,
2013-01-03 09:01:00,9.5,-6.2,30.10,North,356,0.0,2.0,48,0.00,,SKC,0.00,VWS V14.01,2013-01-03 14:01:00,
2013-01-03 09:02:00,9.5,-6.2,30.10,North,356,0.0,2.0,48,0.00,,SKC,0.00,VWS V14.01,2013-01-03 14:02:00,
2013-01-03 09:03:00,9.7,-6.0,30.10,North,356,0.0,2.0,48,0.00,,SKC,0.00,VWS V14.01,2013-01-03 14:03:00,
2013-01-03 09:04:00,9.7,-6.5,30.10,North,354,0.0,2.0,47,0.00,,SKC,0.00,VWS V14.01,2013-01-03 14:04:00,
2013-01-03 09:05:00,9.7,-6.5,30.10,NNW,337,0.0,2.0,47,0.00,,SKC,0.00,VWS V14.01,2013-01-03 14:05:00,
2013-01-03 09:06:00,9.9,-6.3,30.10,NNW,346,0.0,3.0,47,0.00,,SKC,0.00,VWS V14.01,2013-01-03 14:06:00,
2013-01-03 09:07:00,9.9,-6.3,30.10,NNW,346,0.0,3.0,47,0.00,,SKC,0.00,VWS V14.01,2013-01-03 14:07:00,
2013-01-03 09:08:00,10.0,-6.2,30.10,NNW,346,0.0,3.0,47,0.00,,SKC,0.00,VWS V14.01,2013-01-03 14:08:00,
2013-01-03 09:09:00,10.0,-6.2,30.10,NNW,347,0.0,3.0,47,0.00,,SKC,0.00,VWS V14.01,2013-01-03 14:09:00,
2013-01-03 09:10:00,10.0,-6.2,30.10,NNW,347,0.0,3.0,47,0.00,,SKC,0.00,VWS V14.01,2013-01-03 14:10:00,
2013-01-03 09:11:00,10.2,-6.0,30.10,North,349,0.0,0.0,47,0.00,,SKC,0.00,VWS V14.01,2013-01-03 14:11:00,
2013-01-03 09:12:00,10.4,-5.8,30.10,NNW,346,0.0,0.0,47,0.00,,SKC,0.00,VWS V14.01,2013-01-03 14:12:00,
2013-01-03 09:13:00,10.4,-5.8,30.10,NNW,329,1.0,2.0,47,0.00,,SKC,0.00,VWS V14.01,2013-01-03 14:13:00,
2013-01-03 09:14:00,10.4,-6.3,30.10,NW,326,0.0,0.0,46,0.00,,SKC,0.00,VWS V14.01,2013-01-03 14:14:00,
2013-01-03 09:15:00,10.4,-6.3,30.10,NNW,329,0.0,2.0,46,0.00,,SKC,0.00,VWS V14.01,2013-01-03 14:15:00,
2013-01-03 09:16:00,10.5,-6.2,30.10,NNW,328,0.0,0.0,46,0.00,,SKC,0.00,VWS V14.01,2013-01-03 14:16:00,
2013-01-03 09:18:00,10.5,-6.6,30.10,SE,145,0.0,3.0,45,0.00,,SKC,0.00,VWS V14.01,2013-01-03 14:18:00,
2013-01-03 09:20:00,10.7,-6.4,30.10,SSE,154,0.0,0.0,45,0.00,,SKC,0.00,VWS V14.01,2013-01-03 14:20:00,
2013-01-03 09:22:00,10.9,-5.8,30.10,SSE,152,0.0,0.0,46,0.00,,SKC,0.00,VWS V14.01,2013-01-03 14:22:00,
2013-01-03 09:23:00,11.1,-5.6,30.10,SE,144,0.0,0.0,46,0.00,,SKC,0.00,VWS V14.01,2013-01-03 14:23:00,
2013-01-03 09:25:00,11.1,-5.6,30.10,SE,143,0.0,0.0,46,0.00,,SKC,0.00,VWS V14.01,2013-01-03 14:25:00,
2013-01-03 09:28:00,11.4,-6.3,30.10,SE,144,0.0,0.0,44,0.00,,SKC,0.00,VWS V14.01,2013-01-03 14:28:00,
2013-01-03 09:29:00,11.4,-6.3,30.10,SSE,147,0.0,0.0,44,0.00,,SKC,0.00,VWS V14.01,2013-01-03 14:29:00,
2013-01-03 09:30:00,11.4,-5.8,30.10,SE,145,0.0,0.0,45,0.00,,SKC,0.00,VWS V14.01,2013-01-03 14:30:00,
2013-01-03 09:31:00,11.6,-5.6,30.10,SSE,152,0.0,0.0,45,0.00,,SKC,0.00,VWS V14.01,2013-01-03 14:31:00,
2013-01-03 09:33:00,11.7,-6.0,30.10,SSE,150,0.0,0.0,44,0.00,,SKC,0.00,VWS V14.01,2013-01-03 14:33:00,
2013-01-03 09:34:00,11.7,-6.0,30.10,NNW,342,2.0,4.0,44,0.00,,SKC,0.00,VWS V14.01,2013-01-03 14:34:00,
2013-01-03 09:35:00,11.7,-6.0,30.10,NNW,342,2.0,4.0,44,0.00,,SKC,0.00,VWS V14.01,2013-01-03 14:35:00,
2013-01-03 09:36:00,11.7,-6.5,30.10,NNW,346,0.0,2.0,43,0.00,,SKC,0.00,VWS V14.01,2013-01-03 14:36:00,
2013-01-03 09:38:00,11.9,-6.3,30.10,NNW,346,0.0,2.0,43,0.00,,SKC,0.00,VWS V14.01,2013-01-03 14:38:00,
2013-01-03 09:39:00,11.9,-6.3,30.10,North,352,2.0,2.0,43,0.00,,SKC,0.00,VWS V14.01,2013-01-03 14:39:00,
2013-01-03 09:40:00,11.9,-6.3,30.10,North,352,0.0,2.0,43,0.00,,SKC,0.00,VWS V14.01,2013-01-03 14:40:00,
2013-01-03 09:41:00,12.1,-6.1,30.10,NNW,344,0.0,1.0,43,0.00,,SKC,0.00,VWS V14.01,2013-01-03 14:41:00,
2013-01-03 09:44:00,12.3,-5.9,30.11,NW,325,0.0,3.0,43,0.00,,SKC,0.00,VWS V14.01,2013-01-03 14:44:00,
2013-01-03 09:45:00,12.3,-5.9,30.11,NW,325,2.0,3.0,43,0.00,,SKC,0.00,VWS V14.01,2013-01-03 14:45:00,
2013-01-03 09:46:00,12.4,-5.8,30.11,North,353,0.0,5.0,43,0.00,,SKC,0.00,VWS V14.01,2013-01-03 14:46:00,
2013-01-03 09:49:00,12.6,-6.1,30.11,NNW,340,5.0,5.0,42,0.00,,SKC,0.00,VWS V14.01,2013-01-03 14:49:00,
2013-01-03 09:50:00,12.6,-6.1,30.11,NNW,342,0.0,0.0,42,0.00,,SKC,0.00,VWS V14.01,2013-01-03 14:50:00,
2013-01-03 09:52:00,12.6,-6.1,30.11,NNW,344,0.0,0.0,42,0.00,,SKC,0.00,VWS V14.01,2013-01-03 14:52:00,
2013-01-03 09:54:00,12.8,-5.5,30.11,NNW,344,0.0,0.0,43,0.00,,SKC,0.00,VWS V14.01,2013-01-03 14:54:00,
2013-01-03 09:55:00,12.9,-5.4,30.11,NNW,333,1.0,3.0,43,0.00,,SKC,0.00,VWS V14.01,2013-01-03 14:55:00,
2013-01-03 09:57:00,13.1,-5.7,30.11,North,353,4.0,6.0,42,0.00,,SKC,0.00,VWS V14.01,2013-01-03 14:57:00,
2013-01-03 09:59:00,13.1,-6.2,30.11,North,349,2.0,6.0,41,0.00,,SKC,0.00,VWS V14.01,2013-01-03 14:59:00,
2013-01-03 10:00:00,13.3,-6.0,30.11,North,349,0.0,1.0,41,0.00,,SKC,0.00,VWS V14.01,2013-01-03 15:00:00,
2013-01-03 10:01:00,13.3,-6.0,30.11,North,350,2.0,2.0,41,0.00,,SKC,0.00,VWS V14.01,2013-01-03 15:01:00,
2013-01-03 10:03:00,13.5,-5.3,30.11,North,352,0.0,2.0,42,0.00,,SKC,0.00,VWS V14.01,2013-01-03 15:03:00,
2013-01-03 10:04:00,13.5,-5.8,30.11,North,352,0.0,2.0,41,0.00,,SKC,0.00,VWS V14.01,2013-01-03 15:04:00,
2013-01-03 10:05:00,13.6,-5.2,30.11,NNW,347,1.0,2.0,42,0.00,,SKC,0.00,VWS V14.01,2013-01-03 15:05:00,
2013-01-03 10:06:00,13.6,-5.2,30.11,NNW,347,1.0,2.0,42,0.00,,SKC,0.00,VWS V14.01,2013-01-03 15:06:00,
2013-01-03 10:08:00,14.0,-5.3,30.11,SSE,154,0.0,3.0,41,0.00,,SKC,0.00,VWS V14.01,2013-01-03 15:08:00,
2013-01-03 10:09:00,14.0,-5.3,30.11,North,352,1.0,3.0,41,0.00,,SKC,0.00,VWS V14.01,2013-01-03 15:09:00,
2013-01-03 10:10:00,14.0,-5.3,30.11,North,352,1.0,3.0,41,0.00,,SKC,0.00,VWS V14.01,2013-01-03 15:10:00,
2013-01-03 10:11:00,14.1,-5.3,30.11,North,350,0.0,3.0,41,0.00,,SKC,0.00,VWS V14.01,2013-01-03 15:11:00,
2013-01-03 10:14:00,14.1,-6.3,30.10,North,350,1.0,6.0,39,0.00,,SKC,0.00,VWS V14.01,2013-01-03 15:14:00,
2013-01-03 10:15:00,14.1,-6.8,30.10,North,350,0.0,0.0,38,0.00,,SKC,0.00,VWS V14.01,2013-01-03 15:15:00,
2013-01-03 10:16:00,14.3,-6.7,30.10,North,350,0.0,0.0,38,0.00,,SKC,0.00,VWS V14.01,2013-01-03 15:16:00,
2013-01-03 10:19:00,14.4,-6.0,30.10,North,352,0.0,6.0,39,0.00,,SKC,0.00,VWS V14.01,2013-01-03 15:19:00,
2013-01-03 10:20:00,14.4,-6.0,30.10,North,353,0.0,1.0,39,0.00,,SKC,0.00,VWS V14.01,2013-01-03 15:20:00,
2013-01-03 10:21:00,14.4,-5.0,30.10,North,353,0.0,1.0,41,0.00,,SKC,0.00,VWS V14.01,2013-01-03 15:21:00,
2013-01-03 10:25:00,14.8,-5.7,30.10,SSE,152,3.0,3.0,39,0.00,,SKC,0.00,VWS V14.01,2013-01-03 15:25:00,
2013-01-03 10:26:00,14.8,-5.7,30.10,North,353,3.0,3.0,39,0.00,,SKC,0.00,VWS V14.01,2013-01-03 15:26:00,
2013-01-03 10:27:00,14.8,-5.7,30.10,SSE,155,0.0,3.0,39,0.00,,SKC,0.00,VWS V14.01,2013-01-03 15:27:00,
2013-01-03 10:30:00,14.9,-5.6,30.09,North,359,0.0,2.0,39,0.00,,SKC,0.00,VWS V14.01,2013-01-03 15:30:00,
2013-01-03 10:31:00,15.1,-4.3,30.09,North,359,1.0,2.0,41,0.00,,SKC,0.00,VWS V14.01,2013-01-03 15:31:00,
2013-01-03 10:32:00,15.1,-4.3,30.09,NNW,330,2.0,2.0,41,0.00,,SKC,0.00,VWS V14.01,2013-01-03 15:32:00,
2013-01-03 10:35:00,15.4,-5.1,30.09,North,357,2.0,5.0,39,0.00,,SKC,0.00,VWS V14.01,2013-01-03 15:35:00,
2013-01-03 10:36:00,15.4,-5.1,30.09,North,357,0.0,5.0,39,0.00,,SKC,0.00,VWS V14.01,2013-01-03 15:36:00,
2013-01-03 10:37:00,15.4,-5.1,30.09,North,357,0.0,5.0,39,0.00,,SKC,0.00,VWS V14.01,2013-01-03 15:37:00,
2013-01-03 10:40:00,15.7,-5.4,30.09,North,350,6.0,6.0,38,0.00,,SKC,0.00,VWS V14.01,2013-01-03 15:40:00,
2013-01-03 10:41:00,15.7,-5.4,30.09,North,349,0.0,6.0,38,0.00,,SKC,0.00,VWS V14.01,2013-01-03 15:41:00,
2013-01-03 10:42:00,15.7,-5.4,30.09,NNW,335,0.0,6.0,38,0.00,,SKC,0.00,VWS V14.01,2013-01-03 15:42:00,
2013-01-03 10:45:00,15.7,-5.4,30.09,North,357,0.0,6.0,38,0.00,,SKC,0.00,VWS V14.01,2013-01-03 15:45:00,
2013-01-03 10:46:00,15.9,-5.2,30.09,North,356,0.0,1.0,38,0.00,,SKC,0.00,VWS V14.01,2013-01-03 15:46:00,
2013-01-03 10:47:00,15.9,-5.2,30.09,North,356,0.0,1.0,38,0.00,,SKC,0.00,VWS V14.01,2013-01-03 15:47:00,
2013-01-03 10:50:00,16.1,-5.0,30.09,North,356,0.0,1.0,38,0.00,,SKC,0.00,VWS V14.01,2013-01-03 15:50:00,
2013-01-03 10:51:00,16.2,-4.9,30.09,North,356,0.0,0.0,38,0.00,,SKC,0.00,VWS V14.01,2013-01-03 15:51:00,
2013-01-03 10:52:00,16.2,-4.9,30.09,NNW,346,0.0,0.0,38,0.00,,SKC,0.00,VWS V14.01,2013-01-03 15:52:00,
2013-01-03 10:55:00,16.5,-4.7,30.09,NW,315,0.0,2.0,38,0.00,,SKC,0.00,VWS V14.01,2013-01-03 15:55:00,
2013-01-03 10:56:00,16.7,-5.0,30.09,NW,326,0.0,0.0,37,0.00,,SKC,0.00,VWS V14.01,2013-01-03 15:56:00,
2013-01-03 10:57:00,16.7,-5.0,30.09,NNW,328,0.0,0.0,37,0.00,,SKC,0.00,VWS V14.01,2013-01-03 15:57:00,
2013-01-03 11:00:00,16.9,-4.9,30.08,WNW,302,1.0,1.0,37,0.00,,SKC,0.00,VWS V14.01,2013-01-03 16:00:00,
2013-01-03 11:01:00,17.0,-4.8,30.08,WNW,302,0.0,1.0,37,0.00,,SKC,0.00,VWS V14.01,2013-01-03 16:01:00,
2013-01-03 11:02:00,17.0,-4.8,30.08,NNW,347,3.0,3.0,37,0.00,,SKC,0.00,VWS V14.01,2013-01-03 16:02:00,
2013-01-03 11:03:00,17.0,-4.8,30.08,North,353,0.0,3.0,37,0.00,,SKC,0.00,VWS V14.01,2013-01-03 16:03:00,
2013-01-03 11:05:00,17.2,-5.2,30.08,NNW,346,0.0,3.0,36,0.00,,SKC,0.00,VWS V14.01,2013-01-03 16:05:00,
2013-01-03 11:06:00,17.3,-4.5,30.08,NNW,346,0.0,0.0,37,0.00,,SKC,0.00,VWS V14.01,2013-01-03 16:06:00,
2013-01-03 11:08:00,17.5,-4.3,30.08,WNW,292,0.0,0.0,37,0.00,,SKC,0.00,VWS V14.01,2013-01-03 16:08:00,
2013-01-03 11:10:00,17.5,-5.5,30.08,WNW,285,0.0,2.0,35,0.00,,SKC,0.00,VWS V14.01,2013-01-03 16:10:00,
2013-01-03 11:11:00,17.5,-4.9,30.08,WNW,288,0.0,1.0,36,0.00,,SKC,0.00,VWS V14.01,2013-01-03 16:11:00,
2013-01-03 11:13:00,17.5,-4.3,30.08,WNW,287,0.0,1.0,37,0.00,,SKC,0.00,VWS V14.01,2013-01-03 16:13:00,
2013-01-03 11:14:00,17.7,-4.1,30.08,WNW,292,0.0,1.0,37,0.00,,SKC,0.00,VWS V14.01,2013-01-03 16:14:00,
2013-01-03 11:15:00,17.7,-4.1,30.08,WNW,288,0.0,1.0,37,0.00,,SKC,0.00,VWS V14.01,2013-01-03 16:15:00,
2013-01-03 11:17:00,17.7,-4.7,30.08,WNW,291,0.0,0.0,36,0.00,,SKC,0.00,VWS V14.01,2013-01-03 16:17:00,
2013-01-03 11:18:00,17.8,-4.6,30.08,North,353,3.0,3.0,36,0.00,,SKC,0.00,VWS V14.01,2013-01-03 16:18:00,
2013-01-03 11:19:00,17.8,-4.6,30.08,NNW,344,2.0,6.0,36,0.00,,SKC,0.00,VWS V14.01,2013-01-03 16:19:00,
2013-01-03 11:20:00,17.8,-5.2,30.08,NNW,343,0.0,6.0,35,0.00,,SKC,0.00,VWS V14.01,2013-01-03 16:20:00,
2013-01-03 11:22:00,17.8,-5.2,30.08,NNW,340,0.0,2.0,35,0.00,,SKC,0.00,VWS V14.01,2013-01-03 16:22:00,
2013-01-03 11:23:00,18.0,-4.4,30.08,NNW,342,0.0,2.0,36,0.00,,SKC,0.00,VWS V14.01,2013-01-03 16:23:00,
2013-01-03 11:24:00,18.0,-4.4,30.08,NNW,343,0.0,2.0,36,0.00,,SKC,0.00,VWS V14.01,2013-01-03 16:24:00,
2013-01-03 11:25:00,18.0,-4.4,30.08,NNW,342,0.0,2.0,36,0.00,,SKC,0.00,VWS V14.01,2013-01-03 16:25:00,
2013-01-03 11:27:00,18.0,-5.0,30.08,North,350,0.0,4.0,35,0.00,,SKC,0.00,VWS V14.01,2013-01-03 16:27:00,
2013-01-03 11:28:00,18.1,-4.9,30.07,North,349,0.0,4.0,35,0.00,,SKC,0.00,VWS V14.01,2013-01-03 16:28:00,
2013-01-03 11:29:00,18.1,-4.9,30.07,North,349,0.0,4.0,35,0.00,,SKC,0.00,VWS V14.01,2013-01-03 16:29:00,
2013-01-03 11:30:00,18.1,-4.3,30.07,North,349,0.0,4.0,36,0.00,,SKC,0.00,VWS V14.01,2013-01-03 16:30:00,
2013-01-03 11:32:00,18.3,-4.2,30.07,NNW,347,1.0,3.0,36,0.00,,SKC,0.00,VWS V14.01,2013-01-03 16:32:00,
2013-01-03 11:33:00,18.4,-3.5,30.07,NNW,346,0.0,3.0,37,0.00,,SKC,0.00,VWS V14.01,2013-01-03 16:33:00,
2013-01-03 11:34:00,18.4,-3.5,30.07,NNW,346,0.0,3.0,37,0.00,,SKC,0.00,VWS V14.01,2013-01-03 16:34:00,
2013-01-03 11:35:00,18.6,-3.3,30.07,NNW,347,0.0,3.0,37,0.00,,SKC,0.00,VWS V14.01,2013-01-03 16:35:00,
2013-01-03 11:37:00,18.8,-4.3,30.07,SSE,152,0.0,3.0,35,0.00,,SKC,0.00,VWS V14.01,2013-01-03 16:37:00,
2013-01-03 11:39:00,18.8,-3.7,30.07,SSE,165,0.0,3.0,36,0.00,,SKC,0.00,VWS V14.01,2013-01-03 16:39:00,
2013-01-03 11:40:00,18.8,-3.7,30.07,NNW,329,2.0,3.0,36,0.00,,SKC,0.00,VWS V14.01,2013-01-03 16:40:00,
2013-01-03 11:42:00,19.1,-4.0,30.07,North,356,0.0,2.0,35,0.00,,SKC,0.00,VWS V14.01,2013-01-03 16:42:00,
2013-01-03 11:44:00,19.2,-3.4,30.07,North,356,0.0,2.0,36,0.00,,SKC,0.00,VWS V14.01,2013-01-03 16:44:00,
2013-01-03 11:45:00,19.2,-3.4,30.07,North,356,0.0,0.0,36,0.00,,SKC,0.00,VWS V14.01,2013-01-03 16:45:00,
2013-01-03 11:48:00,19.5,-3.7,30.07,North,356,3.0,4.0,35,0.00,,SKC,0.00,VWS V14.01,2013-01-03 16:48:00,
2013-01-03 11:50:00,19.7,-4.1,30.07,North,354,0.0,0.0,34,0.00,,SKC,0.00,VWS V14.01,2013-01-03 16:50:00,
2013-01-03 11:53:00,20.0,-2.7,30.07,North,353,2.0,2.0,36,0.00,,SKC,0.00,VWS V14.01,2013-01-03 16:53:00,
2013-01-03 11:55:00,20.2,-3.1,30.07,NW,306,0.0,0.0,35,0.00,,SKC,0.00,VWS V14.01,2013-01-03 16:55:00,
2013-01-03 11:57:00,20.3,-4.8,30.07,NW,306,0.0,0.0,32,0.00,,SKC,0.00,VWS V14.01,2013-01-03 16:57:00,
2013-01-03 11:58:00,20.3,-4.8,30.07,NW,309,0.0,0.0,32,0.00,,SKC,0.00,VWS V14.01,2013-01-03 16:58:00,
2013-01-03 12:00:00,20.5,-4.0,30.05,NNW,333,0.0,3.0,33,0.00,,SKC,0.00,VWS V14.01,2013-01-03 17:00:00,
2013-01-03 12:02:00,20.6,-2.7,30.05,NNW,333,0.0,3.0,35,0.00,,SKC,0.00,VWS V14.01,2013-01-03 17:02:00,
2013-01-03 12:03:00,20.6,-2.7,30.05,NNW,335,0.0,3.0,35,0.00,,SKC,0.00,VWS V14.01,2013-01-03 17:03:00,
2013-01-03 12:05:00,20.8,-3.1,30.05,WNW,295,2.0,2.0,34,0.00,,SKC,0.00,VWS V14.01,2013-01-03 17:05:00,
2013-01-03 12:06:00,20.8,-4.4,30.05,WNW,292,0.0,2.0,32,0.00,,SKC,0.00,VWS V14.01,2013-01-03 17:06:00,
2013-01-03 12:07:00,21.0,-4.2,30.05,WNW,302,0.0,2.0,32,0.00,,SKC,0.00,VWS V14.01,2013-01-03 17:07:00,
2013-01-03 12:08:00,21.1,-4.1,30.05,WNW,302,1.0,2.0,32,0.00,,SKC,0.00,VWS V14.01,2013-01-03 17:08:00,
2013-01-03 12:10:00,21.1,-4.1,30.05,WNW,299,0.0,0.0,32,0.00,,SKC,0.00,VWS V14.01,2013-01-03 17:10:00,
2013-01-03 12:11:00,21.3,-4.0,30.05,WNW,298,0.0,0.0,32,0.00,,SKC,0.00,VWS V14.01,2013-01-03 17:11:00,
2013-01-03 12:12:00,21.3,-4.0,30.05,WNW,298,0.0,0.0,32,0.00,,SKC,0.00,VWS V14.01,2013-01-03 17:12:00,
2013-01-03 12:13:00,21.3,-4.0,30.05,WNW,295,0.0,1.0,32,0.00,,SKC,0.00,VWS V14.01,2013-01-03 17:13:00,
2013-01-03 12:15:00,21.4,-3.9,30.05,WNW,298,0.0,0.0,32,0.00,,SKC,0.00,VWS V14.01,2013-01-03 17:15:00,
2013-01-03 12:16:00,21.4,-3.2,30.05,WNW,292,0.0,0.0,33,0.00,,SKC,0.00,VWS V14.01,2013-01-03 17:16:00,
2013-01-03 12:17:00,21.4,-3.2,30.05,WNW,295,0.0,0.0,33,0.00,,SKC,0.00,VWS V14.01,2013-01-03 17:17:00,
2013-01-03 12:19:00,21.6,-3.7,30.05,WNW,291,1.0,1.0,32,0.00,,SKC,0.00,VWS V14.01,2013-01-03 17:19:00,
2013-01-03 12:20:00,21.8,-4.9,30.05,North,357,0.0,1.0,30,0.00,,SKC,0.00,VWS V14.01,2013-01-03 17:20:00,
2013-01-03 12:21:00,21.8,-4.9,30.05,NNW,332,0.0,1.0,30,0.00,,SKC,0.00,VWS V14.01,2013-01-03 17:21:00,
2013-01-03 12:22:00,21.9,-5.5,30.05,NNW,330,0.0,2.0,29,0.00,,SKC,0.00,VWS V14.01,2013-01-03 17:22:00,
2013-01-03 12:24:00,22.1,-4.6,30.05,NNW,333,0.0,2.0,30,0.00,,SKC,0.00,VWS V14.01,2013-01-03 17:24:00,
2013-01-03 12:25:00,22.2,-2.5,30.05,NW,325,0.0,0.0,33,0.00,,SKC,0.00,VWS V14.01,2013-01-03 17:25:00,
2013-01-03 12:26:00,22.4,-3.7,30.05,NW,323,1.0,1.0,31,0.00,,SKC,0.00,VWS V14.01,2013-01-03 17:26:00,
2013-01-03 12:28:00,22.5,-3.6,30.05,NNW,328,0.0,1.0,31,0.00,,SKC,0.00,VWS V14.01,2013-01-03 17:28:00,
2013-01-03 12:29:00,22.7,-3.4,30.03,NW,323,0.0,2.0,31,0.00,,SKC,0.00,VWS V14.01,2013-01-03 17:29:00,
2013-01-03 12:30:00,22.9,-3.2,30.03,NNW,330,1.0,1.0,31,0.00,,SKC,0.00,VWS V14.01,2013-01-03 17:30:00,
2013-01-03 12:31:00,23.0,-3.1,30.03,NW,325,1.0,1.0,31,0.00,,SKC,0.00,VWS V14.01,2013-01-03 17:31:00,
2013-01-03 12:33:00,23.2,-3.6,30.03,NW,320,1.0,2.0,30,0.00,,SKC,0.00,VWS V14.01,2013-01-03 17:33:00,
2013-01-03 12:34:00,23.2,-3.6,30.03,NW,320,1.0,2.0,30,0.00,,SKC,0.00,VWS V14.01,2013-01-03 17:34:00,
2013-01-03 12:35:00,23.3,-5.0,30.03,NW,319,0.0,1.0,28,0.00,,SKC,0.00,VWS V14.01,2013-01-03 17:35:00,
2013-01-03 12:36:00,23.3,-5.0,30.03,NW,318,1.0,2.0,28,0.00,,SKC,0.00,VWS V14.01,2013-01-03 17:36:00,
2013-01-03 12:38:00,23.3,-5.0,30.03,West,271,1.0,2.0,28,0.00,,SKC,0.00,VWS V14.01,2013-01-03 17:38:00,
2013-01-03 12:39:00,23.3,-5.7,30.03,West,272,0.0,2.0,27,0.00,,SKC,0.00,VWS V14.01,2013-01-03 17:39:00,
2013-01-03 12:40:00,23.3,-5.7,30.03,West,272,0.0,2.0,27,0.00,,SKC,0.00,VWS V14.01,2013-01-03 17:40:00,
2013-01-03 12:41:00,23.5,-5.6,30.03,West,281,1.0,1.0,27,0.00,,SKC,0.00,VWS V14.01,2013-01-03 17:41:00,
2013-01-03 12:43:00,23.6,-4.7,30.03,NW,325,0.0,2.0,28,0.00,,SKC,0.00,VWS V14.01,2013-01-03 17:43:00,
2013-01-03 12:44:00,23.6,-4.7,30.03,NNW,330,1.0,2.0,28,0.00,,SKC,0.00,VWS V14.01,2013-01-03 17:44:00,
2013-01-03 12:45:00,23.6,-4.7,30.03,NNW,330,1.0,2.0,28,0.00,,SKC,0.00,VWS V14.01,2013-01-03 17:45:00,
2013-01-03 12:47:00,23.8,-4.5,30.03,NNW,330,0.0,1.0,28,0.00,,SKC,0.00,VWS V14.01,2013-01-03 17:47:00,
2013-01-03 12:49:00,23.6,-5.5,30.03,SSE,158,5.0,6.0,27,0.00,,SKC,0.00,VWS V14.01,2013-01-03 17:49:00,
2013-01-03 12:50:00,23.6,-5.5,30.03,NNW,346,0.0,6.0,27,0.00,,SKC,0.00,VWS V14.01,2013-01-03 17:50:00,
2013-01-03 12:52:00,23.5,-4.8,30.03,North,352,2.0,3.0,28,0.00,,SKC,0.00,VWS V14.01,2013-01-03 17:52:00,
2013-01-03 12:54:00,23.5,-3.4,30.03,North,352,0.0,3.0,30,0.00,,SKC,0.00,VWS V14.01,2013-01-03 17:54:00,
2013-01-03 12:55:00,23.6,-4.7,30.03,North,359,3.0,3.0,28,0.00,,SKC,0.00,VWS V14.01,2013-01-03 17:55:00,
2013-01-03 12:57:00,23.6,-4.7,30.03,NW,304,1.0,3.0,28,0.00,,SKC,0.00,VWS V14.01,2013-01-03 17:57:00,
2013-01-03 12:59:00,23.6,-4.7,30.02,NNW,346,2.0,3.0,28,0.00,,SKC,0.00,VWS V14.01,2013-01-03 17:59:00,
2013-01-03 13:00:00,23.6,-4.7,30.02,NNW,347,1.0,1.0,28,0.00,,SKC,0.00,VWS V14.01,2013-01-03 18:00:00,
2013-01-03 13:02:00,23.5,-4.1,30.02,North,352,0.0,2.0,29,0.00,,SKC,0.00,VWS V14.01,2013-01-03 18:02:00,
2013-01-03 13:04:00,23.6,-4.0,30.02,NW,313,1.0,2.0,29,0.00,,SKC,0.00,VWS V14.01,2013-01-03 18:04:00,
2013-01-03 13:05:00,23.6,-4.0,30.02,NNW,328,2.0,2.0,29,0.00,,SKC,0.00,VWS V14.01,2013-01-03 18:05:00,
2013-01-03 13:06:00,23.6,-4.7,30.02,NW,313,1.0,2.0,28,0.00,,SKC,0.00,VWS V14.01,2013-01-03 18:06:00,
2013-01-03 13:07:00,23.6,-4.7,30.02,WNW,301,0.0,3.0,28,0.00,,SKC,0.00,VWS V14.01,2013-01-03 18:07:00,
2013-01-03 13:08:00,23.6,-4.7,30.02,NW,319,2.0,3.0,28,0.00,,SKC,0.00,VWS V14.01,2013-01-03 18:08:00,
2013-01-03 13:09:00,23.6,-5.5,30.02,NW,319,1.0,3.0,27,0.00,,SKC,0.00,VWS V14.01,2013-01-03 18:09:00,
2013-01-03 13:10:00,23.6,-5.5,30.02,NW,320,0.0,3.0,27,0.00,,SKC,0.00,VWS V14.01,2013-01-03 18:10:00,
2013-01-03 13:11:00,23.6,-3.3,30.02,NNW,337,1.0,2.0,30,0.00,,SKC,0.00,VWS V14.01,2013-01-03 18:11:00,
2013-01-03 13:13:00,23.6,-4.7,30.02,NW,320,3.0,3.0,28,0.00,,SKC,0.00,VWS V14.01,2013-01-03 18:13:00,
2013-01-03 13:14:00,23.6,-5.5,30.02,WNW,288,1.0,1.0,27,0.00,,SKC,0.00,VWS V14.01,2013-01-03 18:14:00,
2013-01-03 13:15:00,23.6,-5.5,30.02,WNW,288,1.0,3.0,27,0.00,,SKC,0.00,VWS V14.01,2013-01-03 18:15:00,
2013-01-03 13:17:00,23.6,-5.5,30.02,West,281,2.0,3.0,27,0.00,,SKC,0.00,VWS V14.01,2013-01-03 18:17:00,
2013-01-03 13:18:00,23.6,-4.7,30.02,WNW,291,2.0,3.0,28,0.00,,SKC,0.00,VWS V14.01,2013-01-03 18:18:00,
2013-01-03 13:20:00,23.6,-5.5,30.02,NW,308,1.0,2.0,27,0.00,,SKC,0.00,VWS V14.01,2013-01-03 18:20:00,
2013-01-03 13:22:00,23.8,-4.5,30.02,NW,311,0.0,2.0,28,0.00,,SKC,0.00,VWS V14.01,2013-01-03 18:22:00,
2013-01-03 13:23:00,23.8,-2.4,30.02,NW,311,0.0,2.0,31,0.00,,SKC,0.00,VWS V14.01,2013-01-03 18:23:00,
2013-01-03 13:24:00,23.8,-2.4,30.02,NW,319,2.0,2.0,31,0.00,,SKC,0.00,VWS V14.01,2013-01-03 18:24:00,
2013-01-03 13:25:00,23.8,-4.5,30.02,NNW,328,1.0,2.0,28,0.00,,SKC,0.00,VWS V14.01,2013-01-03 18:25:00,
2013-01-03 13:27:00,23.8,-4.5,30.02,NW,313,1.0,2.0,28,0.00,,SKC,0.00,VWS V14.01,2013-01-03 18:27:00,
2013-01-03 13:28:00,23.8,-5.3,30.02,NW,316,1.0,2.0,27,0.00,,SKC,0.00,VWS V14.01,2013-01-03 18:28:00,
2013-01-03 13:29:00,23.8,-4.5,30.01,North,349,0.0,2.0,28,0.00,,SKC,0.00,VWS V14.01,2013-01-03 18:29:00,
2013-01-03 13:30:00,23.8,-4.5,30.01,North,350,2.0,2.0,28,0.00,,SKC,0.00,VWS V14.01,2013-01-03 18:30:00,
2013-01-03 13:31:00,23.8,-4.5,30.01,NNW,329,3.0,3.0,28,0.00,,SKC,0.00,VWS V14.01,2013-01-03 18:31:00,
2013-01-03 13:32:00,23.6,-4.7,30.01,NNW,330,0.0,3.0,28,0.00,,SKC,0.00,VWS V14.01,2013-01-03 18:32:00,
2013-01-03 13:33:00,23.6,-4.7,30.01,NNW,329,1.0,3.0,28,0.00,,SKC,0.00,VWS V14.01,2013-01-03 18:33:00,
2013-01-03 13:34:00,23.6,-4.7,30.01,NNW,329,0.0,3.0,28,0.00,,SKC,0.00,VWS V14.01,2013-01-03 18:34:00,
2013-01-03 13:35:00,23.6,-4.7,30.01,NNW,329,0.0,3.0,28,0.00,,SKC,0.00,VWS V14.01,2013-01-03 18:35:00,
2013-01-03 13:37:00,23.6,-4.7,30.01,NNW,333,0.0,1.0,28,0.00,,SKC,0.00,VWS V14.01,2013-01-03 18:37:00,
2013-01-03 13:39:00,23.6,-5.5,30.01,NNW,333,0.0,1.0,27,0.00,,SKC,0.00,VWS V14.01,2013-01-03 18:39:00,
2013-01-03 13:40:00,23.6,-5.5,30.01,NNW,333,0.0,0.0,27,0.00,,SKC,0.00,VWS V14.01,2013-01-03 18:40:00,
2013-01-03 13:42:00,23.8,-4.5,30.01,NW,323,0.0,0.0,28,0.00,,SKC,0.00,VWS V14.01,2013-01-03 18:42:00,
2013-01-03 13:44:00,23.9,-3.0,30.01,NW,325,0.0,0.0,30,0.00,,SKC,0.00,VWS V14.01,2013-01-03 18:44:00,
2013-01-03 13:45:00,23.9,-3.7,30.01,NW,323,0.0,0.0,29,0.00,,SKC,0.00,VWS V14.01,2013-01-03 18:45:00,
2013-01-03 13:47:00,23.9,-4.4,30.01,WNW,301,0.0,0.0,28,0.00,,SKC,0.00,VWS V14.01,2013-01-03 18:47:00,
2013-01-03 13:49:00,24.1,-4.3,30.01,NW,311,0.0,3.0,28,0.00,,SKC,0.00,VWS V14.01,2013-01-03 18:49:00,
2013-01-03 13:50:00,24.1,-5.0,30.01,NW,311,0.0,0.0,27,0.00,,SKC,0.00,VWS V14.01,2013-01-03 18:50:00,
2013-01-03 13:52:00,24.1,-3.5,30.01,NW,313,0.0,1.0,29,0.00,,SKC,0.00,VWS V14.01,2013-01-03 18:52:00,
2013-01-03 13:54:00,24.2,-3.5,30.01,NNW,346,1.0,2.0,29,0.00,,SKC,0.00,VWS V14.01,2013-01-03 18:54:00,
2013-01-03 13:55:00,24.2,-3.5,30.01,NW,305,1.0,3.0,29,0.00,,SKC,0.00,VWS V14.01,2013-01-03 18:55:00,
2013-01-03 13:57:00,24.2,-4.9,30.01,NW,305,0.0,3.0,27,0.00,,SKC,0.00,VWS V14.01,2013-01-03 18:57:00,
2013-01-03 13:58:00,24.2,-4.9,30.01,NW,306,1.0,3.0,27,0.00,,SKC,0.00,VWS V14.01,2013-01-03 18:58:00,
2013-01-03 13:59:00,24.2,-5.7,30.01,NW,308,2.0,3.0,26,0.00,,SKC,0.00,VWS V14.01,2013-01-03 18:59:00,
2013-01-03 14:00:00,24.2,-5.7,30.01,NW,308,2.0,3.0,26,0.00,,SKC,0.00,VWS V14.01,2013-01-03 19:00:00,
2013-01-03 14:01:00,24.2,-5.7,30.01,NNW,330,0.0,3.0,26,0.00,,SKC,0.00,VWS V14.01,2013-01-03 19:01:00,
2013-01-03 14:02:00,24.2,-4.9,30.01,WNW,299,2.0,3.0,27,0.00,,SKC,0.00,VWS V14.01,2013-01-03 19:02:00,
2013-01-03 14:03:00,24.2,-4.9,30.01,WNW,298,2.0,3.0,27,0.00,,SKC,0.00,VWS V14.01,2013-01-03 19:03:00,
2013-01-03 14:04:00,24.1,-5.8,30.01,NW,313,0.0,1.0,26,0.00,,SKC,0.00,VWS V14.01,2013-01-03 19:04:00,
2013-01-03 14:05:00,24.1,-5.8,30.01,NW,313,1.0,3.0,26,0.00,,SKC,0.00,VWS V14.01,2013-01-03 19:05:00,
2013-01-03 14:06:00,24.1,-5.8,30.01,NW,323,2.0,2.0,26,0.00,,SKC,0.00,VWS V14.01,2013-01-03 19:06:00,
2013-01-03 14:07:00,24.1,-5.8,30.01,WNW,301,1.0,2.0,26,0.00,,SKC,0.00,VWS V14.01,2013-01-03 19:07:00,
2013-01-03 14:08:00,24.1,-5.8,30.01,WNW,299,1.0,2.0,26,0.00,,SKC,0.00,VWS V14.01,2013-01-03 19:08:00,
2013-01-03 14:10:00,23.9,-6.0,30.01,WNW,296,1.0,1.0,26,0.00,,SKC,0.00,VWS V14.01,2013-01-03 19:10:00,
2013-01-03 14:11:00,23.9,-5.2,30.01,WNW,295,0.0,1.0,27,0.00,,SKC,0.00,VWS V14.01,2013-01-03 19:11:00,
2013-01-03 14:13:00,23.8,-5.3,30.01,WNW,296,0.0,1.0,27,0.00,,SKC,0.00,VWS V14.01,2013-01-03 19:13:00,
2013-01-03 14:15:00,23.8,-5.3,30.01,NW,306,2.0,2.0,27,0.00,,SKC,0.00,VWS V14.01,2013-01-03 19:15:00,
2013-01-03 14:17:00,23.6,-5.5,30.01,WNW,289,0.0,4.0,27,0.00,,SKC,0.00,VWS V14.01,2013-01-03 19:17:00,
2013-01-03 14:18:00,23.6,-5.5,30.01,NW,316,1.0,4.0,27,0.00,,SKC,0.00,VWS V14.01,2013-01-03 19:18:00,
2013-01-03 14:20:00,23.6,-5.5,30.01,NW,316,0.0,4.0,27,0.00,,SKC,0.00,VWS V14.01,2013-01-03 19:20:00,
2013-01-03 14:25:00,23.5,-6.3,30.01,WNW,301,2.0,3.0,26,0.00,,SKC,0.00,VWS V14.01,2013-01-03 19:25:00,
2013-01-03 14:30:00,23.3,-5.7,30.02,NW,312,1.0,3.0,27,0.00,,SKC,0.00,VWS V14.01,2013-01-03 19:30:00,
2013-01-03 14:35:00,23.3,-5.7,30.02,NW,305,0.0,5.0,27,0.00,,SKC,0.00,VWS V14.01,2013-01-03 19:35:00,
2013-01-03 14:40:00,23.6,-4.7,30.02,WNW,292,0.0,2.0,28,0.00,,SKC,0.00,VWS V14.01,2013-01-03 19:40:00,
2013-01-03 14:45:00,23.8,-4.5,30.02,WNW,298,2.0,3.0,28,0.00,,SKC,0.00,VWS V14.01,2013-01-03 19:45:00,
2013-01-03 14:50:00,23.8,-7.7,30.02,WNW,289,0.0,3.0,24,0.00,,SKC,0.00,VWS V14.01,2013-01-03 19:50:00,
2013-01-03 14:51:00,23.8,-7.7,30.02,North,349,0.0,1.0,24,0.00,,SKC,0.00,VWS V14.01,2013-01-03 19:51:00,
2013-01-03 14:55:00,23.9,-6.8,30.02,NNW,340,0.0,1.0,25,0.00,,SKC,0.00,VWS V14.01,2013-01-03 19:55:00,
2013-01-03 14:56:00,23.9,-6.0,30.02,NNW,342,0.0,1.0,26,0.00,,SKC,0.00,VWS V14.01,2013-01-03 19:56:00,
2013-01-03 14:58:00,23.9,-6.8,30.02,NNW,342,0.0,1.0,25,0.00,,SKC,0.00,VWS V14.01,2013-01-03 19:58:00,
2013-01-03 15:00:00,23.9,-6.0,30.01,NNW,340,0.0,1.0,26,0.00,,SKC,0.00,VWS V14.01,2013-01-03 20:00:00,
2013-01-03 15:01:00,23.9,-5.2,30.01,NNW,340,0.0,2.0,27,0.00,,SKC,0.00,VWS V14.01,2013-01-03 20:01:00,
2013-01-03 15:02:00,23.9,-5.2,30.01,NNW,342,0.0,2.0,27,0.00,,SKC,0.00,VWS V14.01,2013-01-03 20:02:00,
2013-01-03 15:03:00,23.9,-5.2,30.01,NNW,340,0.0,2.0,27,0.00,,SKC,0.00,VWS V14.01,2013-01-03 20:03:00,
2013-01-03 15:05:00,23.8,-5.3,30.01,NNW,340,0.0,0.0,27,0.00,,SKC,0.00,VWS V14.01,2013-01-03 20:05:00,
2013-01-03 15:06:00,23.8,-5.3,30.01,NNW,340,0.0,0.0,27,0.00,,SKC,0.00,VWS V14.01,2013-01-03 20:06:00,
2013-01-03 15:07:00,23.8,-4.5,30.01,NNW,342,0.0,1.0,28,0.00,,SKC,0.00,VWS V14.01,2013-01-03 20:07:00,
2013-01-03 15:09:00,23.8,-4.5,30.01,NW,323,0.0,1.0,28,0.00,,SKC,0.00,VWS V14.01,2013-01-03 20:09:00,
2013-01-03 15:10:00,23.8,-4.5,30.01,West,264,5.0,5.0,28,0.00,,SKC,0.00,VWS V14.01,2013-01-03 20:10:00,
2013-01-03 15:12:00,23.8,-4.5,30.01,NW,309,0.0,5.0,28,0.00,,SKC,0.00,VWS V14.01,2013-01-03 20:12:00,
2013-01-03 15:14:00,23.6,-5.5,30.02,NNW,330,0.0,0.0,27,0.00,,SKC,0.00,VWS V14.01,2013-01-03 20:14:00,
2013-01-03 15:15:00,23.6,-5.5,30.02,NNW,332,0.0,0.0,27,0.00,,SKC,0.00,VWS V14.01,2013-01-03 20:15:00,
2013-01-03 15:17:00,23.6,-6.2,30.02,NW,326,1.0,1.0,26,0.00,,SKC,0.00,VWS V14.01,2013-01-03 20:17:00,
2013-01-03 15:18:00,23.6,-6.2,30.02,NNW,328,0.0,1.0,26,0.00,,SKC,0.00,VWS V14.01,2013-01-03 20:18:00,
2013-01-03 15:19:00,23.5,-7.1,30.02,North,349,0.0,2.0,25,0.00,,SKC,0.00,VWS V14.01,2013-01-03 20:19:00,
2013-01-03 15:20:00,23.5,-7.1,30.02,NNW,347,0.0,0.0,25,0.00,,SKC,0.00,VWS V14.01,2013-01-03 20:20:00,
2013-01-03 15:22:00,23.5,-7.1,30.02,NNW,347,0.0,0.0,25,0.00,,SKC,0.00,VWS V14.01,2013-01-03 20:22:00,
2013-01-03 15:23:00,23.5,-4.8,30.02,NNW,347,0.0,0.0,28,0.00,,SKC,0.00,VWS V14.01,2013-01-03 20:23:00,
2013-01-03 15:25:00,23.3,-5.0,30.02,North,349,0.0,2.0,28,0.00,,SKC,0.00,VWS V14.01,2013-01-03 20:25:00,
2013-01-03 15:27:00,23.2,-6.6,30.02,NNW,329,1.0,2.0,26,0.00,,SKC,0.00,VWS V14.01,2013-01-03 20:27:00,
2013-01-03 15:28:00,23.2,-6.6,30.02,NNW,328,0.0,2.0,26,0.00,,SKC,0.00,VWS V14.01,2013-01-03 20:28:00,
2013-01-03 15:30:00,23.2,-5.8,30.01,NNW,328,0.0,0.0,27,0.00,,SKC,0.00,VWS V14.01,2013-01-03 20:30:00,
2013-01-03 15:33:00,23.2,-5.8,30.01,NNW,329,0.0,0.0,27,0.00,,SKC,0.00,VWS V14.01,2013-01-03 20:33:00,
2013-01-03 15:35:00,23.2,-5.8,30.01,NNW,329,0.0,0.0,27,0.00,,SKC,0.00,VWS V14.01,2013-01-03 20:35:00,
2013-01-03 15:38:00,23.2,-3.6,30.01,NNW,329,0.0,0.0,30,0.00,,SKC,0.00,VWS V14.01,2013-01-03 20:38:00,
2013-01-03 15:39:00,23.2,-2.3,30.01,NNW,330,0.0,0.0,32,0.00,,SKC,0.00,VWS V14.01,2013-01-03 20:39:00,
2013-01-03 15:40:00,23.0,-3.1,30.01,NNW,328,0.0,0.0,31,0.00,,SKC,0.00,VWS V14.01,2013-01-03 20:40:00,
2013-01-03 15:41:00,23.0,-3.1,30.01,NNW,329,0.0,0.0,31,0.00,,SKC,0.00,VWS V14.01,2013-01-03 20:41:00,
2013-01-03 15:43:00,22.9,-5.3,30.01,NNW,329,0.0,0.0,28,0.00,,SKC,0.00,VWS V14.01,2013-01-03 20:43:00,
2013-01-03 15:44:00,22.9,-5.3,30.01,NNW,330,0.0,0.0,28,0.00,,SKC,0.00,VWS V14.01,2013-01-03 20:44:00,
2013-01-03 15:45:00,22.9,-5.3,30.01,NW,305,0.0,0.0,28,0.00,,SKC,0.00,VWS V14.01,2013-01-03 20:45:00,
2013-01-03 15:46:00,22.9,-5.3,30.01,WNW,292,1.0,1.0,28,0.00,,SKC,0.00,VWS V14.01,2013-01-03 20:46:00,
2013-01-03 15:48:00,22.7,-6.2,30.01,WNW,291,0.0,1.0,27,0.00,,SKC,0.00,VWS V14.01,2013-01-03 20:48:00,
2013-01-03 15:49:00,22.7,-5.5,30.01,WNW,296,0.0,1.0,28,0.00,,SKC,0.00,VWS V14.01,2013-01-03 20:49:00,
2013-01-03 15:50:00,22.7,-5.5,30.01,WNW,299,0.0,0.0,28,0.00,,SKC,0.00,VWS V14.01,2013-01-03 20:50:00,
2013-01-03 15:51:00,22.7,-5.5,30.01,WNW,301,0.0,0.0,28,0.00,,SKC,0.00,VWS V14.01,2013-01-03 20:51:00,
2013-01-03 15:54:00,22.7,-5.5,30.01,NW,316,0.0,3.0,28,0.00,,SKC,0.00,VWS V14.01,2013-01-03 20:54:00,
2013-01-03 15:55:00,22.7,-5.5,30.01,NW,316,0.0,3.0,28,0.00,,SKC,0.00,VWS V14.01,2013-01-03 20:55:00,
2013-01-03 15:56:00,22.7,-4.1,30.01,NW,312,0.0,0.0,30,0.00,,SKC,0.00,VWS V14.01,2013-01-03 20:56:00,
2013-01-03 15:57:00,22.5,-4.2,30.01,NW,315,0.0,0.0,30,0.00,,SKC,0.00,VWS V14.01,2013-01-03 20:57:00,
2013-01-03 15:59:00,22.5,-4.2,30.01,NW,315,0.0,0.0,30,0.00,,SKC,0.00,VWS V14.01,2013-01-03 20:59:00,
2013-01-03 16:00:00,22.5,-4.2,30.01,NW,315,0.0,0.0,30,0.00,,SKC,0.00,VWS V14.01,2013-01-03 21:00:00,
2013-01-03 16:01:00,22.4,-4.3,30.01,NW,313,0.0,0.0,30,0.00,,SKC,0.00,VWS V14.01,2013-01-03 21:01:00,
2013-01-03 16:02:00,22.4,-4.3,30.01,NW,315,0.0,0.0,30,0.00,,SKC,0.00,VWS V14.01,2013-01-03 21:02:00,
2013-01-03 16:04:00,22.4,-3.0,30.01,NW,315,0.0,0.0,32,0.00,,SKC,0.00,VWS V14.01,2013-01-03 21:04:00,
2013-01-03 16:05:00,22.4,-3.0,30.01,NW,316,0.0,0.0,32,0.00,,SKC,0.00,VWS V14.01,2013-01-03 21:05:00,
2013-01-03 16:07:00,22.2,-3.2,30.01,NW,316,0.0,0.0,32,0.00,,SKC,0.00,VWS V14.01,2013-01-03 21:07:00,
2013-01-03 16:10:00,22.2,-3.8,30.01,NW,313,0.0,0.0,31,0.00,,SKC,0.00,VWS V14.01,2013-01-03 21:10:00,
2013-01-03 16:11:00,22.2,-3.8,30.01,NW,316,0.0,0.0,31,0.00,,SKC,0.00,VWS V14.01,2013-01-03 21:11:00,
2013-01-03 16:12:00,22.1,-3.9,30.01,NW,316,0.0,0.0,31,0.00,,SKC,0.00,VWS V14.01,2013-01-03 21:12:00,
2013-01-03 16:15:00,21.9,-4.8,30.01,NW,313,0.0,0.0,30,0.00,,SKC,0.00,VWS V14.01,2013-01-03 21:15:00,
2013-01-03 16:16:00,21.9,-4.8,30.01,NW,313,0.0,0.0,30,0.00,,SKC,0.00,VWS V14.01,2013-01-03 21:16:00,
2013-01-03 16:17:00,21.9,-4.8,30.01,NW,313,0.0,0.0,30,0.00,,SKC,0.00,VWS V14.01,2013-01-03 21:17:00,
2013-01-03 16:19:00,21.9,-5.5,30.01,NW,313,0.0,0.0,29,0.00,,SKC,0.00,VWS V14.01,2013-01-03 21:19:00,
2013-01-03 16:20:00,21.9,-5.5,30.01,NW,316,0.0,0.0,29,0.00,,SKC,0.00,VWS V14.01,2013-01-03 21:20:00,
2013-01-03 16:21:00,21.9,-5.5,30.01,NW,312,0.0,0.0,29,0.00,,SKC,0.00,VWS V14.01,2013-01-03 21:21:00,
2013-01-03 16:23:00,21.9,-6.2,30.01,NW,315,0.0,0.0,28,0.00,,SKC,0.00,VWS V14.01,2013-01-03 21:23:00,
2013-01-03 16:24:00,21.9,-6.2,30.01,NW,318,0.0,0.0,28,0.00,,SKC,0.00,VWS V14.01,2013-01-03 21:24:00,
2013-01-03 16:25:00,21.9,-6.2,30.01,NW,316,0.0,0.0,28,0.00,,SKC,0.00,VWS V14.01,2013-01-03 21:25:00,
2013-01-03 16:26:00,21.9,-6.2,30.01,NW,320,0.0,0.0,28,0.00,,SKC,0.00,VWS V14.01,2013-01-03 21:26:00,
2013-01-03 16:27:00,21.9,-6.2,30.01,NW,316,0.0,0.0,28,0.00,,SKC,0.00,VWS V14.01,2013-01-03 21:27:00,
2013-01-03 16:28:00,21.8,-6.3,30.01,NW,318,0.0,0.0,28,0.00,,SKC,0.00,VWS V14.01,2013-01-03 21:28:00,
2013-01-03 16:29:00,21.8,-6.3,30.01,NW,315,0.0,0.0,28,0.00,,SKC,0.00,VWS V14.01,2013-01-03 21:29:00,
2013-01-03 16:30:00,21.8,-6.3,30.01,NW,313,0.0,0.0,28,0.00,,SKC,0.00,VWS V14.01,2013-01-03 21:30:00,
2013-01-03 16:31:00,21.8,-5.6,30.01,NW,315,0.0,0.0,29,0.00,,SKC,0.00,VWS V14.01,2013-01-03 21:31:00,
2013-01-03 16:32:00,21.8,-5.6,30.01,NW,315,0.0,0.0,29,0.00,,SKC,0.00,VWS V14.01,2013-01-03 21:32:00,
2013-01-03 16:33:00,21.6,-5.7,30.01,NW,316,0.0,0.0,29,0.00,,SKC,0.00,VWS V14.01,2013-01-03 21:33:00,
2013-01-03 16:34:00,21.6,-5.7,30.01,NW,313,0.0,0.0,29,0.00,,SKC,0.00,VWS V14.01,2013-01-03 21:34:00,
2013-01-03 16:35:00,21.6,-5.7,30.01,NW,313,0.0,0.0,29,0.00,,SKC,0.00,VWS V14.01,2013-01-03 21:35:00,
2013-01-03 16:36:00,21.4,-5.2,30.01,NW,316,0.0,0.0,30,0.00,,SKC,0.00,VWS V14.01,2013-01-03 21:36:00,
2013-01-03 16:37:00,21.4,-5.2,30.01,NW,315,0.0,0.0,30,0.00,,SKC,0.00,VWS V14.01,2013-01-03 21:37:00,
2013-01-03 16:39:00,21.4,-5.9,30.01,NW,315,0.0,0.0,29,0.00,,SKC,0.00,VWS V14.01,2013-01-03 21:39:00,
2013-01-03 16:40:00,21.3,-6.0,30.01,NW,313,0.0,0.0,29,0.00,,SKC,0.00,VWS V14.01,2013-01-03 21:40:00,
2013-01-03 16:43:00,21.1,-5.5,30.01,NW,313,0.0,0.0,30,0.00,,SKC,0.00,VWS V14.01,2013-01-03 21:43:00,
2013-01-03 16:44:00,21.1,-4.8,30.01,NW,313,0.0,0.0,31,0.00,,SKC,0.00,VWS V14.01,2013-01-03 21:44:00,
2013-01-03 16:45:00,21.0,-4.9,30.01,NW,313,0.0,0.0,31,0.00,,SKC,0.00,VWS V14.01,2013-01-03 21:45:00,
2013-01-03 16:46:00,21.0,-4.9,30.01,NW,315,0.0,0.0,31,0.00,,SKC,0.00,VWS V14.01,2013-01-03 21:46:00,
2013-01-03 16:48:00,20.8,-5.1,30.01,NW,315,0.0,0.0,31,0.00,,SKC,0.00,VWS V14.01,2013-01-03 21:48:00,
2013-01-03 16:50:00,20.6,-5.2,30.01,NW,315,0.0,0.0,31,0.00,,SKC,0.00,VWS V14.01,2013-01-03 21:50:00,
2013-01-03 16:51:00,20.6,-5.2,30.01,NW,313,0.0,0.0,31,0.00,,SKC,0.00,VWS V14.01,2013-01-03 21:51:00,
2013-01-03 16:53:00,20.5,-5.3,30.01,NW,316,0.0,0.0,31,0.00,,SKC,0.00,VWS V14.01,2013-01-03 21:53:00,
2013-01-03 16:55:00,20.5,-5.3,30.01,NW,316,0.0,0.0,31,0.00,,SKC,0.00,VWS V14.01,2013-01-03 21:55:00,
2013-01-03 16:57:00,20.3,-5.5,30.01,NW,313,0.0,0.0,31,0.00,,SKC,0.00,VWS V14.01,2013-01-03 21:57:00,
2013-01-03 16:58:00,20.2,-3.1,30.01,NW,313,0.0,0.0,35,0.00,,SKC,0.00,VWS V14.01,2013-01-03 21:58:00,
2013-01-03 17:00:00,20.0,-3.2,30.01,NW,315,0.0,0.0,35,0.00,,SKC,0.00,VWS V14.01,2013-01-03 22:00:00,
2013-01-03 17:02:00,19.9,-2.2,30.01,NW,315,0.0,0.0,37,0.00,,SKC,0.00,VWS V14.01,2013-01-03 22:02:00,
2013-01-03 17:04:00,19.9,-1.0,30.01,NW,313,0.0,0.0,39,0.00,,SKC,0.00,VWS V14.01,2013-01-03 22:04:00,
2013-01-03 17:05:00,19.7,-0.2,30.01,NW,316,0.0,0.0,41,0.00,,SKC,0.00,VWS V14.01,2013-01-03 22:05:00,
2013-01-03 17:06:00,19.7,-0.2,30.01,NW,313,0.0,0.0,41,0.00,,SKC,0.00,VWS V14.01,2013-01-03 22:06:00,
2013-01-03 17:07:00,19.5,-2.0,30.01,NW,315,0.0,0.0,38,0.00,,SKC,0.00,VWS V14.01,2013-01-03 22:07:00,
2013-01-03 17:09:00,19.5,-1.4,30.01,NW,315,0.0,0.0,39,0.00,,SKC,0.00,VWS V14.01,2013-01-03 22:09:00,
2013-01-03 17:10:00,19.4,-0.4,30.01,NW,313,0.0,0.0,41,0.00,,SKC,0.00,VWS V14.01,2013-01-03 22:10:00,
2013-01-03 17:12:00,19.4,-0.4,30.01,NW,316,0.0,0.0,41,0.00,,SKC,0.00,VWS V14.01,2013-01-03 22:12:00,
2013-01-03 17:14:00,19.2,0.9,30.02,NW,316,0.0,0.0,44,0.00,,SKC,0.00,VWS V14.01,2013-01-03 22:14:00,
2013-01-03 17:15:00,19.2,0.9,30.02,NW,316,0.0,0.0,44,0.00,,SKC,0.00,VWS V14.01,2013-01-03 22:15:00,
2013-01-03 17:16:00,19.2,0.9,30.02,NW,315,0.0,0.0,44,0.00,,SKC,0.00,VWS V14.01,2013-01-03 22:16:00,
2013-01-03 17:17:00,19.1,0.8,30.02,NW,313,0.0,0.0,44,0.00,,SKC,0.00,VWS V14.01,2013-01-03 22:17:00,
2013-01-03 17:19:00,19.1,2.7,30.02,NW,315,0.0,0.0,48,0.00,,SKC,0.00,VWS V14.01,2013-01-03 22:19:00,
2013-01-03 17:20:00,19.1,2.7,30.02,NW,315,0.0,0.0,48,0.00,,SKC,0.00,VWS V14.01,2013-01-03 22:20:00,
2013-01-03 17:21:00,18.9,2.5,30.02,NW,316,0.0,0.0,48,0.00,,SKC,0.00,VWS V14.01,2013-01-03 22:21:00,
2013-01-03 17:22:00,18.9,2.5,30.02,NW,313,0.0,0.0,48,0.00,,SKC,0.00,VWS V14.01,2013-01-03 22:22:00,
2013-01-03 17:24:00,18.8,2.4,30.02,NW,313,0.0,0.0,48,0.00,,SKC,0.00,VWS V14.01,2013-01-03 22:24:00,
2013-01-03 17:25:00,18.8,2.4,30.02,NW,313,0.0,0.0,48,0.00,,SKC,0.00,VWS V14.01,2013-01-03 22:25:00,
2013-01-03 17:26:00,18.8,2.4,30.02,NW,315,0.0,0.0,48,0.00,,SKC,0.00,VWS V14.01,2013-01-03 22:26:00,
2013-01-03 17:27:00,18.6,1.7,30.02,NW,315,0.0,0.0,47,0.00,,SKC,0.00,VWS V14.01,2013-01-03 22:27:00,
2013-01-03 17:30:00,18.6,1.3,30.01,NW,318,0.0,0.0,46,0.00,,SKC,0.00,VWS V14.01,2013-01-03 22:30:00,
2013-01-03 17:31:00,18.4,1.1,30.01,NW,315,0.0,0.0,46,0.00,,SKC,0.00,VWS V14.01,2013-01-03 22:31:00,
2013-01-03 17:32:00,18.3,1.0,30.01,NW,315,0.0,0.0,46,0.00,,SKC,0.00,VWS V14.01,2013-01-03 22:32:00,
2013-01-03 17:35:00,18.3,1.0,30.01,NW,315,0.0,0.0,46,0.00,,SKC,0.00,VWS V14.01,2013-01-03 22:35:00,
2013-01-03 17:36:00,18.1,0.8,30.01,NW,313,0.0,0.0,46,0.00,,SKC,0.00,VWS V14.01,2013-01-03 22:36:00,
2013-01-03 17:37:00,18.0,0.7,30.01,NW,316,0.0,0.0,46,0.00,,SKC,0.00,VWS V14.01,2013-01-03 22:37:00,
2013-01-03 17:38:00,18.0,0.7,30.01,NW,316,0.0,0.0,46,0.00,,SKC,0.00,VWS V14.01,2013-01-03 22:38:00,
2013-01-03 17:40:00,18.0,0.7,30.01,NW,318,0.0,0.0,46,0.00,,SKC,0.00,VWS V14.01,2013-01-03 22:40:00,
2013-01-03 17:41:00,18.0,0.7,30.01,NW,318,0.0,0.0,46,0.00,,SKC,0.00,VWS V14.01,2013-01-03 22:41:00,
2013-01-03 17:42:00,17.7,0.4,30.01,NW,316,0.0,0.0,46,0.00,,SKC,0.00,VWS V14.01,2013-01-03 22:42:00,
2013-01-03 17:43:00,17.7,0.4,30.01,NW,318,0.0,0.0,46,0.00,,SKC,0.00,VWS V14.01,2013-01-03 22:43:00,
2013-01-03 17:45:00,17.5,0.3,30.02,NW,318,0.0,0.0,46,0.00,,SKC,0.00,VWS V14.01,2013-01-03 22:45:00,
2013-01-03 17:46:00,17.3,0.1,30.02,NW,318,0.0,0.0,46,0.00,,SKC,0.00,VWS V14.01,2013-01-03 22:46:00,
2013-01-03 17:47:00,17.3,0.1,30.02,NW,315,0.0,0.0,46,0.00,,SKC,0.00,VWS V14.01,2013-01-03 22:47:00,
2013-01-03 17:48:00,17.3,0.1,30.02,NW,315,0.0,0.0,46,0.00,,SKC,0.00,VWS V14.01,2013-01-03 22:48:00,
2013-01-03 17:50:00,17.3,0.1,30.02,NW,315,0.0,0.0,46,0.00,,SKC,0.00,VWS V14.01,2013-01-03 22:50:00,
2013-01-03 17:51:00,17.3,0.1,30.02,NW,316,0.0,0.0,46,0.00,,SKC,0.00,VWS V14.01,2013-01-03 22:51:00,
2013-01-03 17:52:00,17.3,0.1,30.02,NW,315,0.0,0.0,46,0.00,,SKC,0.00,VWS V14.01,2013-01-03 22:52:00,
2013-01-03 17:53:00,17.3,0.1,30.02,NW,318,0.0,0.0,46,0.00,,SKC,0.00,VWS V14.01,2013-01-03 22:53:00,
2013-01-03 17:55:00,17.3,0.1,30.02,NW,318,0.0,0.0,46,0.00,,SKC,0.00,VWS V14.01,2013-01-03 22:55:00,
2013-01-03 17:56:00,17.2,3.0,30.02,NW,315,0.0,0.0,53,0.00,,SKC,0.00,VWS V14.01,2013-01-03 22:56:00,
2013-01-03 17:57:00,17.2,3.0,30.02,NW,315,0.0,0.0,53,0.00,,SKC,0.00,VWS V14.01,2013-01-03 22:57:00,
2013-01-03 17:58:00,17.2,3.0,30.01,NW,315,0.0,0.0,53,0.00,,SKC,0.00,VWS V14.01,2013-01-03 22:58:00,
2013-01-03 18:00:00,17.2,3.0,30.01,NW,315,0.0,0.0,53,0.00,,SKC,0.00,VWS V14.01,2013-01-03 23:00:00,
2013-01-03 18:02:00,17.2,3.0,30.01,NW,315,0.0,0.0,53,0.00,,SKC,0.00,VWS V14.01,2013-01-03 23:02:00,
2013-01-03 18:04:00,17.2,3.0,30.01,NW,315,0.0,0.0,53,0.00,,SKC,0.00,VWS V14.01,2013-01-03 23:04:00,
2013-01-03 18:05:00,17.3,3.1,30.01,NW,316,0.0,0.0,53,0.00,,SKC,0.00,VWS V14.01,2013-01-03 23:05:00,
2013-01-03 18:07:00,17.3,3.1,30.01,NW,315,0.0,0.0,53,0.00,,SKC,0.00,VWS V14.01,2013-01-03 23:07:00,
2013-01-03 18:09:00,17.5,3.3,30.01,NW,315,0.0,0.0,53,0.00,,SKC,0.00,VWS V14.01,2013-01-03 23:09:00,
2013-01-03 18:10:00,17.5,3.3,30.01,NW,315,0.0,0.0,53,0.00,,SKC,0.00,VWS V14.01,2013-01-03 23:10:00,
2013-01-03 18:12:00,17.5,2.9,30.01,NW,316,0.0,0.0,52,0.00,,SKC,0.00,VWS V14.01,2013-01-03 23:12:00,
2013-01-03 18:14:00,17.5,2.9,30.01,NW,315,0.0,0.0,52,0.00,,SKC,0.00,VWS V14.01,2013-01-03 23:14:00,
2013-01-03 18:15:00,17.7,3.1,30.01,NW,315,0.0,0.0,52,0.00,,SKC,0.00,VWS V14.01,2013-01-03 23:15:00,
2013-01-03 18:17:00,17.7,3.1,30.01,NW,316,0.0,0.0,52,0.00,,SKC,0.00,VWS V14.01,2013-01-03 23:17:00,
2013-01-03 18:18:00,17.7,3.1,30.01,NW,316,0.0,0.0,52,0.00,,SKC,0.00,VWS V14.01,2013-01-03 23:18:00,
2013-01-03 18:19:00,17.7,3.1,30.01,NW,318,0.0,0.0,52,0.00,,SKC,0.00,VWS V14.01,2013-01-03 23:19:00,
2013-01-03 18:20:00,17.7,3.1,30.01,NW,318,0.0,0.0,52,0.00,,SKC,0.00,VWS V14.01,2013-01-03 23:20:00,
2013-01-03 18:22:00,17.7,3.1,30.01,NW,315,0.0,0.0,52,0.00,,SKC,0.00,VWS V14.01,2013-01-03 23:22:00,
2013-01-03 18:23:00,17.5,2.9,30.01,NW,315,0.0,0.0,52,0.00,,SKC,0.00,VWS V14.01,2013-01-03 23:23:00,
2013-01-03 18:24:00,17.5,2.9,30.01,NW,319,0.0,0.0,52,0.00,,SKC,0.00,VWS V14.01,2013-01-03 23:24:00,
2013-01-03 18:25:00,17.5,2.9,30.01,NW,319,0.0,0.0,52,0.00,,SKC,0.00,VWS V14.01,2013-01-03 23:25:00,
2013-01-03 18:27:00,17.5,5.6,30.01,NW,316,0.0,0.0,59,0.00,,SKC,0.00,VWS V14.01,2013-01-03 23:27:00,
2013-01-03 18:28:00,17.5,5.6,30.01,NW,318,0.0,0.0,59,0.00,,SKC,0.00,VWS V14.01,2013-01-03 23:28:00,
2013-01-03 18:29:00,17.3,5.4,30.02,NW,316,0.0,0.0,59,0.00,,SKC,0.00,VWS V14.01,2013-01-03 23:29:00,
2013-01-03 18:30:00,17.3,5.4,30.02,NW,316,0.0,0.0,59,0.00,,SKC,0.00,VWS V14.01,2013-01-03 23:30:00,
2013-01-03 18:33:00,17.5,6.0,30.02,NW,315,0.0,0.0,60,0.00,,SKC,0.00,VWS V14.01,2013-01-03 23:33:00,
2013-01-03 18:34:00,17.5,6.0,30.02,NW,315,0.0,0.0,60,0.00,,SKC,0.00,VWS V14.01,2013-01-03 23:34:00,
2013-01-03 18:35:00,17.5,6.0,30.02,NW,315,0.0,0.0,60,0.00,,SKC,0.00,VWS V14.01,2013-01-03 23:35:00,
2013-01-03 18:39:00,17.7,6.6,30.02,NW,316,0.0,0.0,61,0.00,,SKC,0.00,VWS V14.01,2013-01-03 23:39:00,
2013-01-03 18:40:00,17.7,6.6,30.02,NW,315,0.0,0.0,61,0.00,,SKC,0.00,VWS V14.01,2013-01-03 23:40:00,
2013-01-03 18:44:00,17.8,6.6,30.02,NW,315,0.0,0.0,61,0.00,,SKC,0.00,VWS V14.01,2013-01-03 23:44:00,
2013-01-03 18:45:00,17.8,6.6,30.02,NW,318,0.0,0.0,61,0.00,,SKC,0.00,VWS V14.01,2013-01-03 23:45:00,
2013-01-03 18:49:00,18.0,6.1,30.02,NW,315,0.0,0.0,59,0.00,,SKC,0.00,VWS V14.01,2013-01-03 23:49:00,
2013-01-03 18:50:00,18.0,6.1,30.02,NW,319,0.0,0.0,59,0.00,,SKC,0.00,VWS V14.01,2013-01-03 23:50:00,
2013-01-03 18:51:00,18.0,6.1,30.02,NW,319,0.0,0.0,59,0.00,,SKC,0.00,VWS V14.01,2013-01-03 23:51:00,
2013-01-03 18:54:00,18.3,6.4,30.02,NW,316,0.0,0.0,59,0.00,,SKC,0.00,VWS V14.01,2013-01-03 23:54:00,
2013-01-03 18:55:00,18.3,6.4,30.02,NW,315,0.0,0.0,59,0.00,,SKC,0.00,VWS V14.01,2013-01-03 23:55:00,
2013-01-03 18:56:00,18.3,6.4,30.02,NW,315,0.0,0.0,59,0.00,,SKC,0.00,VWS V14.01,2013-01-03 23:56:00,
2013-01-03 18:59:00,18.6,6.7,30.03,NW,315,0.0,0.0,59,0.00,,SKC,0.00,VWS V14.01,2013-01-03 23:59:00,
2013-01-03 19:00:00,18.8,6.9,30.03,NW,316,0.0,0.0,59,0.00,,SKC,0.00,VWS V14.01,2013-01-04 00:00:00,
2013-01-03 19:01:00,18.8,6.9,30.03,NW,316,0.0,0.0,59,0.00,,SKC,0.00,VWS V14.01,2013-01-04 00:01:00,
2013-01-03 19:04:00,18.9,6.9,30.03,NW,315,0.0,0.0,59,0.00,,SKC,0.00,VWS V14.01,2013-01-04 00:04:00,
2013-01-03 19:05:00,19.1,6.0,30.03,NW,315,0.0,0.0,56,0.00,,SKC,0.00,VWS V14.01,2013-01-04 00:05:00,
2013-01-03 19:06:00,19.1,6.4,30.03,NW,318,0.0,0.0,57,0.00,,SKC,0.00,VWS V14.01,2013-01-04 00:06:00,
2013-01-03 19:09:00,19.2,6.5,30.03,NW,315,0.0,0.0,57,0.00,,SKC,0.00,VWS V14.01,2013-01-04 00:09:00,
2013-01-03 19:10:00,19.2,6.5,30.03,NW,316,0.0,0.0,57,0.00,,SKC,0.00,VWS V14.01,2013-01-04 00:10:00,
2013-01-03 19:12:00,19.2,6.5,30.03,NW,315,0.0,0.0,57,0.00,,SKC,0.00,VWS V14.01,2013-01-04 00:12:00,
2013-01-03 19:14:00,19.4,7.4,30.03,NW,315,0.0,0.0,59,0.00,,SKC,0.00,VWS V14.01,2013-01-04 00:14:00,
2013-01-03 19:15:00,19.4,7.4,30.03,NW,318,0.0,0.0,59,0.00,,SKC,0.00,VWS V14.01,2013-01-04 00:15:00,
2013-01-03 19:17:00,19.4,7.8,30.03,NW,315,0.0,0.0,60,0.00,,SKC,0.00,VWS V14.01,2013-01-04 00:17:00,
2013-01-03 19:19:00,19.4,7.1,30.03,NW,313,0.0,0.0,58,0.00,,SKC,0.00,VWS V14.01,2013-01-04 00:19:00,
2013-01-03 19:20:00,19.4,7.1,30.03,NW,313,0.0,0.0,58,0.00,,SKC,0.00,VWS V14.01,2013-01-04 00:20:00,
2013-01-03 19:22:00,19.4,7.1,30.03,NW,316,0.0,0.0,58,0.00,,SKC,0.00,VWS V14.01,2013-01-04 00:22:00,
2013-01-03 19:25:00,19.4,7.1,30.03,NW,315,0.0,0.0,58,0.00,,SKC,0.00,VWS V14.01,2013-01-04 00:25:00,
2013-01-03 19:27:00,19.4,7.1,30.03,NW,318,0.0,0.0,58,0.00,,SKC,0.00,VWS V14.01,2013-01-04 00:27:00,
2013-01-03 19:30:00,19.4,7.1,30.03,NW,315,0.0,0.0,58,0.00,,SKC,0.00,VWS V14.01,2013-01-04 00:30:00,
2013-01-03 19:31:00,19.4,7.4,30.03,NW,315,0.0,0.0,59,0.00,,SKC,0.00,VWS V14.01,2013-01-04 00:31:00,
2013-01-03 19:32:00,19.4,7.4,30.03,NW,315,0.0,0.0,59,0.00,,SKC,0.00,VWS V14.01,2013-01-04 00:32:00,
2013-01-03 19:35:00,19.4,7.1,30.03,NW,313,0.0,0.0,58,0.00,,SKC,0.00,VWS V14.01,2013-01-04 00:35:00,
2013-01-03 19:36:00,19.4,7.1,30.03,NW,315,0.0,0.0,58,0.00,,SKC,0.00,VWS V14.01,2013-01-04 00:36:00,
2013-01-03 19:37:00,19.4,7.1,30.03,NW,316,0.0,0.0,58,0.00,,SKC,0.00,VWS V14.01,2013-01-04 00:37:00,
2013-01-03 19:40:00,19.5,7.5,30.03,NW,315,0.0,0.0,59,0.00,,SKC,0.00,VWS V14.01,2013-01-04 00:40:00,
2013-01-03 19:41:00,19.5,7.5,30.03,NW,318,0.0,0.0,59,0.00,,SKC,0.00,VWS V14.01,2013-01-04 00:41:00,
2013-01-03 19:43:00,19.5,7.9,30.03,NW,316,0.0,0.0,60,0.00,,SKC,0.00,VWS V14.01,2013-01-04 00:43:00,
2013-01-03 19:45:00,19.5,7.9,30.03,NW,316,0.0,0.0,60,0.00,,SKC,0.00,VWS V14.01,2013-01-04 00:45:00,
2013-01-03 19:46:00,19.7,8.1,30.03,NW,315,0.0,0.0,60,0.00,,SKC,0.00,VWS V14.01,2013-01-04 00:46:00,
2013-01-03 19:47:00,19.7,8.1,30.03,NW,316,0.0,0.0,60,0.00,,SKC,0.00,VWS V14.01,2013-01-04 00:47:00,
2013-01-03 19:49:00,19.7,8.1,30.03,NW,316,0.0,0.0,60,0.00,,SKC,0.00,VWS V14.01,2013-01-04 00:49:00,
2013-01-03 19:50:00,19.7,8.1,30.03,NW,318,0.0,0.0,60,0.00,,SKC,0.00,VWS V14.01,2013-01-04 00:50:00,
2013-01-03 19:51:00,19.7,8.1,30.03,NW,315,0.0,0.0,60,0.00,,SKC,0.00,VWS V14.01,2013-01-04 00:51:00,
2013-01-03 19:52:00,19.7,8.1,30.03,NW,316,0.0,0.0,60,0.00,,SKC,0.00,VWS V14.01,2013-01-04 00:52:00,
2013-01-03 19:54:00,19.7,7.7,30.03,NW,313,0.0,0.0,59,0.00,,SKC,0.00,VWS V14.01,2013-01-04 00:54:00,
2013-01-03 19:55:00,19.7,7.7,30.03,NW,316,0.0,0.0,59,0.00,,SKC,0.00,VWS V14.01,2013-01-04 00:55:00,
2013-01-03 19:56:00,19.9,7.9,30.03,NW,316,0.0,0.0,59,0.00,,SKC,0.00,VWS V14.01,2013-01-04 00:56:00,
2013-01-03 19:57:00,19.9,7.9,30.03,NW,315,0.0,0.0,59,0.00,,SKC,0.00,VWS V14.01,2013-01-04 00:57:00,
2013-01-03 19:59:00,19.9,7.9,30.03,NW,313,0.0,0.0,59,0.00,,SKC,0.00,VWS V14.01,2013-01-04 00:59:00,
2013-01-03 20:00:00,19.9,7.9,30.03,NW,313,0.0,0.0,59,0.00,,SKC,0.00,VWS V14.01,2013-01-04 01:00:00,
2013-01-03 20:01:00,19.9,7.1,30.03,NW,315,0.0,0.0,57,0.00,,SKC,0.00,VWS V14.01,2013-01-04 01:01:00,
2013-01-03 20:02:00,19.9,7.1,30.03,NW,315,0.0,0.0,57,0.00,,SKC,0.00,VWS V14.01,2013-01-04 01:02:00,
2013-01-03 20:04:00,20.0,8.0,30.03,NW,318,0.0,0.0,59,0.00,,SKC,0.00,VWS V14.01,2013-01-04 01:04:00,
2013-01-03 20:05:00,20.0,8.0,30.03,NW,315,0.0,0.0,59,0.00,,SKC,0.00,VWS V14.01,2013-01-04 01:05:00,
2013-01-03 20:07:00,20.0,8.0,30.03,NW,315,0.0,0.0,59,0.00,,SKC,0.00,VWS V14.01,2013-01-04 01:07:00,
2013-01-03 20:10:00,20.2,8.2,30.03,NW,316,0.0,0.0,59,0.00,,SKC,0.00,VWS V14.01,2013-01-04 01:10:00,
2013-01-03 20:12:00,20.3,7.1,30.03,NW,315,0.0,0.0,56,0.00,,SKC,0.00,VWS V14.01,2013-01-04 01:12:00,
2013-01-03 20:15:00,20.3,7.1,30.02,NW,318,0.0,0.0,56,0.00,,SKC,0.00,VWS V14.01,2013-01-04 01:15:00,
2013-01-03 20:17:00,20.3,7.1,30.02,NW,318,0.0,0.0,56,0.00,,SKC,0.00,VWS V14.01,2013-01-04 01:17:00,
2013-01-03 20:20:00,20.5,7.3,30.02,NW,316,0.0,0.0,56,0.00,,SKC,0.00,VWS V14.01,2013-01-04 01:20:00,
2013-01-03 20:22:00,20.5,7.3,30.02,NW,313,0.0,0.0,56,0.00,,SKC,0.00,VWS V14.01,2013-01-04 01:22:00,
2013-01-03 20:23:00,20.5,7.3,30.02,NW,316,0.0,0.0,56,0.00,,SKC,0.00,VWS V14.01,2013-01-04 01:23:00,
2013-01-03 20:25:00,20.5,7.3,30.02,NW,315,0.0,0.0,56,0.00,,SKC,0.00,VWS V14.01,2013-01-04 01:25:00,
2013-01-03 20:27:00,20.5,7.3,30.02,NW,316,0.0,0.0,56,0.00,,SKC,0.00,VWS V14.01,2013-01-04 01:27:00,
2013-01-03 20:28:00,20.5,7.3,30.02,NW,318,0.0,0.0,56,0.00,,SKC,0.00,VWS V14.01,2013-01-04 01:28:00,
2013-01-03 20:30:00,20.5,7.3,30.02,NW,318,0.0,0.0,56,0.00,,SKC,0.00,VWS V14.01,2013-01-04 01:30:00,
2013-01-03 20:32:00,20.5,7.3,30.02,NW,316,0.0,0.0,56,0.00,,SKC,0.00,VWS V14.01,2013-01-04 01:32:00,
2013-01-03 20:33:00,20.5,7.3,30.02,NW,315,0.0,0.0,56,0.00,,SKC,0.00,VWS V14.01,2013-01-04 01:33:00,
2013-01-03 20:35:00,20.5,7.7,30.02,NW,316,0.0,0.0,57,0.00,,SKC,0.00,VWS V14.01,2013-01-04 01:35:00,
2013-01-03 20:38:00,20.5,8.1,30.02,NW,316,0.0,0.0,58,0.00,,SKC,0.00,VWS V14.01,2013-01-04 01:38:00,
2013-01-03 20:39:00,20.5,8.1,30.02,NW,313,0.0,0.0,58,0.00,,SKC,0.00,VWS V14.01,2013-01-04 01:39:00,
2013-01-03 20:40:00,20.5,8.1,30.02,NW,315,0.0,0.0,58,0.00,,SKC,0.00,VWS V14.01,2013-01-04 01:40:00,
2013-01-03 20:41:00,20.5,7.7,30.02,NW,313,0.0,0.0,57,0.00,,SKC,0.00,VWS V14.01,2013-01-04 01:41:00,
2013-01-03 20:43:00,20.5,7.7,30.02,NW,316,0.0,0.0,57,0.00,,SKC,0.00,VWS V14.01,2013-01-04 01:43:00,
2013-01-03 20:44:00,20.5,7.7,30.02,NW,315,0.0,0.0,57,0.00,,SKC,0.00,VWS V14.01,2013-01-04 01:44:00,
2013-01-03 20:45:00,20.2,8.6,30.02,NW,316,0.0,0.0,60,0.00,,SKC,0.00,VWS V14.01,2013-01-04 01:45:00,
2013-01-03 20:46:00,20.5,7.7,30.02,NW,315,0.0,0.0,57,0.00,,SKC,0.00,VWS V14.01,2013-01-04 01:46:00,
2013-01-03 20:48:00,20.5,7.3,30.02,NW,318,0.0,0.0,56,0.00,,SKC,0.00,VWS V14.01,2013-01-04 01:48:00,
2013-01-03 20:49:00,20.5,7.3,30.02,NW,316,0.0,0.0,56,0.00,,SKC,0.00,VWS V14.01,2013-01-04 01:49:00,
2013-01-03 20:50:00,20.2,8.2,30.02,NW,315,0.0,2.0,59,0.00,,SKC,0.00,VWS V14.01,2013-01-04 01:50:00,
2013-01-03 20:51:00,20.6,7.4,30.02,NW,315,0.0,0.0,56,0.00,,SKC,0.00,VWS V14.01,2013-01-04 01:51:00,
2013-01-03 20:53:00,20.6,8.2,30.02,NW,318,0.0,0.0,58,0.00,,SKC,0.00,VWS V14.01,2013-01-04 01:53:00,
2013-01-03 20:54:00,20.6,8.2,30.02,NW,316,0.0,0.0,58,0.00,,SKC,0.00,VWS V14.01,2013-01-04 01:54:00,
2013-01-03 20:55:00,20.6,8.2,30.02,NW,316,0.0,0.0,58,0.00,,SKC,0.00,VWS V14.01,2013-01-04 01:55:00,
2013-01-03 20:57:00,20.6,8.2,30.02,NW,316,0.0,0.0,58,0.00,,SKC,0.00,VWS V14.01,2013-01-04 01:57:00,
2013-01-03 20:59:00,20.5,7.3,30.03,NW,315,0.0,0.0,56,0.00,,SKC,0.00,VWS V14.01,2013-01-04 01:59:00,
2013-01-03 21:00:00,20.5,7.3,30.03,NW,315,0.0,0.0,56,0.00,,SKC,0.00,VWS V14.01,2013-01-04 02:00:00,
2013-01-03 21:02:00,20.5,8.1,30.03,NW,316,0.0,0.0,58,0.00,,SKC,0.00,VWS V14.01,2013-01-04 02:02:00,
2013-01-03 21:04:00,20.5,8.1,30.03,NW,315,0.0,0.0,58,0.00,,SKC,0.00,VWS V14.01,2013-01-04 02:04:00,
2013-01-03 21:05:00,20.5,8.5,30.03,NW,316,0.0,0.0,59,0.00,,SKC,0.00,VWS V14.01,2013-01-04 02:05:00,
2013-01-03 21:08:00,20.5,8.5,30.03,NW,318,0.0,0.0,59,0.00,,SKC,0.00,VWS V14.01,2013-01-04 02:08:00,
2013-01-03 21:09:00,20.3,8.3,30.03,NW,315,0.0,0.0,59,0.00,,SKC,0.00,VWS V14.01,2013-01-04 02:09:00,
2013-01-03 21:10:00,20.3,8.3,30.03,NW,315,0.0,0.0,59,0.00,,SKC,0.00,VWS V14.01,2013-01-04 02:10:00,
2013-01-03 21:13:00,20.3,9.0,30.03,NW,318,0.0,0.0,61,0.00,,SKC,0.00,VWS V14.01,2013-01-04 02:13:00,
2013-01-03 21:14:00,20.3,9.0,30.03,NW,319,0.0,0.0,61,0.00,,SKC,0.00,VWS V14.01,2013-01-04 02:14:00,
2013-01-03 21:15:00,20.2,8.9,30.03,NW,316,0.0,0.0,61,0.00,,SKC,0.00,VWS V14.01,2013-01-04 02:15:00,
2013-01-03 21:18:00,20.2,8.9,30.03,NW,315,0.0,0.0,61,0.00,,SKC,0.00,VWS V14.01,2013-01-04 02:18:00,
2013-01-03 21:19:00,20.2,7.8,30.03,NW,316,0.0,0.0,58,0.00,,SKC,0.00,VWS V14.01,2013-01-04 02:19:00,
2013-01-03 21:20:00,20.0,8.0,30.01,NW,313,0.0,0.0,59,0.00,,SKC,0.00,VWS V14.01,2013-01-04 02:20:00,
2013-01-03 21:21:00,20.2,8.6,30.03,NW,318,0.0,0.0,60,0.00,,SKC,0.00,VWS V14.01,2013-01-04 02:21:00,
2013-01-03 21:23:00,20.0,8.0,30.03,NW,316,0.0,0.0,59,0.00,,SKC,0.00,VWS V14.01,2013-01-04 02:23:00,
2013-01-03 21:24:00,20.0,8.0,30.03,NW,315,0.0,0.0,59,0.00,,SKC,0.00,VWS V14.01,2013-01-04 02:24:00,
2013-01-03 21:25:00,20.0,8.0,30.03,NW,315,0.0,0.0,59,0.00,,SKC,0.00,VWS V14.01,2013-01-04 02:25:00,
2013-01-03 21:26:00,20.0,7.6,30.03,NW,318,0.0,0.0,58,0.00,,SKC,0.00,VWS V14.01,2013-01-04 02:26:00,
2013-01-03 21:29:00,20.0,7.2,30.02,NW,318,0.0,0.0,57,0.00,,SKC,0.00,VWS V14.01,2013-01-04 02:29:00,
2013-01-03 21:30:00,20.0,7.2,30.02,NW,315,0.0,0.0,57,0.00,,SKC,0.00,VWS V14.01,2013-01-04 02:30:00,
2013-01-03 21:31:00,20.0,7.2,30.02,NW,315,0.0,0.0,57,0.00,,SKC,0.00,VWS V14.01,2013-01-04 02:31:00,
2013-01-03 21:35:00,20.2,8.2,30.02,NW,316,0.0,0.0,59,0.00,,SKC,0.00,VWS V14.01,2013-01-04 02:35:00,
2013-01-03 21:36:00,20.2,8.2,30.02,NW,316,0.0,0.0,59,0.00,,SKC,0.00,VWS V14.01,2013-01-04 02:36:00,
2013-01-03 21:40:00,20.0,8.4,30.02,NW,315,0.0,0.0,60,0.00,,SKC,0.00,VWS V14.01,2013-01-04 02:40:00,
2013-01-03 21:41:00,20.0,8.4,30.02,NW,315,0.0,0.0,60,0.00,,SKC,0.00,VWS V14.01,2013-01-04 02:41:00,
2013-01-03 21:45:00,20.2,8.2,30.02,NW,316,0.0,0.0,59,0.00,,SKC,0.00,VWS V14.01,2013-01-04 02:45:00,
2013-01-03 21:46:00,20.2,8.6,30.02,NW,315,0.0,0.0,60,0.00,,SKC,0.00,VWS V14.01,2013-01-04 02:46:00,
2013-01-03 21:50:00,20.2,8.2,30.02,NW,313,1.0,1.0,59,0.00,,SKC,0.00,VWS V14.01,2013-01-04 02:50:00,
2013-01-03 21:51:00,20.2,8.2,30.02,NW,315,0.0,1.0,59,0.00,,SKC,0.00,VWS V14.01,2013-01-04 02:51:00,
2013-01-03 21:52:00,20.2,8.2,30.02,NW,313,0.0,1.0,59,0.00,,SKC,0.00,VWS V14.01,2013-01-04 02:52:00,
2013-01-03 21:55:00,20.2,8.6,30.02,NW,315,0.0,0.0,60,0.00,,SKC,0.00,VWS V14.01,2013-01-04 02:55:00,
2013-01-03 21:56:00,20.2,8.6,30.02,NW,313,0.0,0.0,60,0.00,,SKC,0.00,VWS V14.01,2013-01-04 02:56:00,
2013-01-03 21:57:00,20.2,8.6,30.02,NW,313,0.0,0.0,60,0.00,,SKC,0.00,VWS V14.01,2013-01-04 02:57:00,
2013-01-03 22:00:00,20.2,8.2,30.01,NW,312,0.0,0.0,59,0.00,,SKC,0.00,VWS V14.01,2013-01-04 03:00:00,
2013-01-03 22:01:00,20.2,8.2,30.01,NW,313,0.0,0.0,59,0.00,,SKC,0.00,VWS V14.01,2013-01-04 03:01:00,
2013-01-03 22:02:00,20.2,7.8,30.01,NW,313,0.0,0.0,58,0.00,,SKC,0.00,VWS V14.01,2013-01-04 03:02:00,
2013-01-03 22:05:00,20.2,7.8,30.01,NW,315,0.0,0.0,58,0.00,,SKC,0.00,VWS V14.01,2013-01-04 03:05:00,
2013-01-03 22:06:00,20.2,8.2,30.01,NW,315,0.0,0.0,59,0.00,,SKC,0.00,VWS V14.01,2013-01-04 03:06:00,
2013-01-03 22:08:00,20.2,8.2,30.01,NW,313,0.0,0.0,59,0.00,,SKC,0.00,VWS V14.01,2013-01-04 03:08:00,
2013-01-03 22:10:00,20.2,8.2,30.01,NW,315,0.0,0.0,59,0.00,,SKC,0.00,VWS V14.01,2013-01-04 03:10:00,
2013-01-03 22:11:00,20.2,8.2,30.01,NW,313,0.0,0.0,59,0.00,,SKC,0.00,VWS V14.01,2013-01-04 03:11:00,
2013-01-03 22:12:00,20.2,8.2,30.01,NW,313,0.0,0.0,59,0.00,,SKC,0.00,VWS V14.01,2013-01-04 03:12:00,
2013-01-03 22:13:00,20.2,8.2,30.01,NW,315,0.0,0.0,59,0.00,,SKC,0.00,VWS V14.01,2013-01-04 03:13:00,
2013-01-03 22:15:00,20.2,8.2,30.01,NW,315,0.0,0.0,59,0.00,,SKC,0.00,VWS V14.01,2013-01-04 03:15:00,
2013-01-03 22:16:00,20.2,8.2,30.01,NW,315,0.0,0.0,59,0.00,,SKC,0.00,VWS V14.01,2013-01-04 03:16:00,
2013-01-03 22:17:00,20.2,8.2,30.01,NW,313,0.0,0.0,59,0.00,,SKC,0.00,VWS V14.01,2013-01-04 03:17:00,
2013-01-03 22:18:00,20.0,8.0,30.01,NW,315,0.0,0.0,59,0.00,,SKC,0.00,VWS V14.01,2013-01-04 03:18:00,
2013-01-03 22:20:00,20.0,8.0,30.01,NW,313,0.0,0.0,59,0.00,,SKC,0.00,VWS V14.01,2013-01-04 03:20:00,
2013-01-03 22:21:00,20.0,8.4,30.01,NW,315,0.0,0.0,60,0.00,,SKC,0.00,VWS V14.01,2013-01-04 03:21:00,
2013-01-03 22:22:00,20.0,8.4,30.01,NW,315,0.0,0.0,60,0.00,,SKC,0.00,VWS V14.01,2013-01-04 03:22:00,
2013-01-03 22:23:00,20.0,8.4,30.01,NW,312,0.0,0.0,60,0.00,,SKC,0.00,VWS V14.01,2013-01-04 03:23:00,
2013-01-03 22:24:00,20.0,8.4,30.01,NW,315,0.0,0.0,60,0.00,,SKC,0.00,VWS V14.01,2013-01-04 03:24:00,
2013-01-03 22:25:00,20.0,8.4,30.01,NW,313,0.0,0.0,60,0.00,,SKC,0.00,VWS V14.01,2013-01-04 03:25:00,
2013-01-03 22:26:00,20.0,8.4,30.01,NW,313,0.0,0.0,60,0.00,,SKC,0.00,VWS V14.01,2013-01-04 03:26:00,
2013-01-03 22:27:00,20.2,8.6,30.01,NW,316,0.0,0.0,60,0.00,,SKC,0.00,VWS V14.01,2013-01-04 03:27:00,
2013-01-03 22:28:00,20.2,8.6,30.01,NW,312,0.0,0.0,60,0.00,,SKC,0.00,VWS V14.01,2013-01-04 03:28:00,
2013-01-03 22:29:00,20.2,8.6,30.02,NW,312,0.0,0.0,60,0.00,,SKC,0.00,VWS V14.01,2013-01-04 03:29:00,
2013-01-03 22:30:00,20.2,8.6,30.02,NW,313,0.0,0.0,60,0.00,,SKC,0.00,VWS V14.01,2013-01-04 03:30:00,
2013-01-03 22:32:00,20.2,8.6,30.02,NW,315,0.0,0.0,60,0.00,,SKC,0.00,VWS V14.01,2013-01-04 03:32:00,
2013-01-03 22:33:00,20.2,8.6,30.02,NW,313,0.0,0.0,60,0.00,,SKC,0.00,VWS V14.01,2013-01-04 03:33:00,
2013-01-03 22:34:00,20.0,9.1,30.02,NW,315,0.0,0.0,62,0.00,,SKC,0.00,VWS V14.01,2013-01-04 03:34:00,
2013-01-03 22:35:00,20.0,9.1,30.02,NW,316,0.0,0.0,62,0.00,,SKC,0.00,VWS V14.01,2013-01-04 03:35:00,
2013-01-03 22:37:00,20.0,9.4,30.02,NW,313,0.0,0.0,63,0.00,,SKC,0.00,VWS V14.01,2013-01-04 03:37:00,
2013-01-03 22:38:00,20.0,9.4,30.02,NW,313,0.0,0.0,63,0.00,,SKC,0.00,VWS V14.01,2013-01-04 03:38:00,
2013-01-03 22:39:00,20.0,9.4,30.02,NW,316,0.0,0.0,63,0.00,,SKC,0.00,VWS V14.01,2013-01-04 03:39:00,
2013-01-03 22:40:00,20.0,9.4,30.02,NW,316,0.0,0.0,63,0.00,,SKC,0.00,VWS V14.01,2013-01-04 03:40:00,
2013-01-03 22:41:00,19.9,9.0,30.02,NW,315,0.0,0.0,62,0.00,,SKC,0.00,VWS V14.01,2013-01-04 03:41:00,
2013-01-03 22:42:00,19.9,9.0,30.02,NW,313,0.0,0.0,62,0.00,,SKC,0.00,VWS V14.01,2013-01-04 03:42:00,
2013-01-03 22:43:00,19.7,8.8,30.02,NW,313,0.0,0.0,62,0.00,,SKC,0.00,VWS V14.01,2013-01-04 03:43:00,
2013-01-03 22:45:00,19.7,8.8,30.01,NW,315,0.0,0.0,62,0.00,,SKC,0.00,VWS V14.01,2013-01-04 03:45:00,
2013-01-03 22:46:00,19.7,8.8,30.01,NW,313,0.0,0.0,62,0.00,,SKC,0.00,VWS V14.01,2013-01-04 03:46:00,
2013-01-03 22:48:00,19.7,9.2,30.01,NW,313,0.0,0.0,63,0.00,,SKC,0.00,VWS V14.01,2013-01-04 03:48:00,
2013-01-03 22:50:00,19.5,9.0,30.01,NW,313,0.0,0.0,63,0.00,,SKC,0.00,VWS V14.01,2013-01-04 03:50:00,
2013-01-03 22:51:00,19.5,9.0,30.01,NW,313,0.0,0.0,63,0.00,,SKC,0.00,VWS V14.01,2013-01-04 03:51:00,
2013-01-03 22:53:00,19.5,9.0,30.01,NW,313,0.0,0.0,63,0.00,,SKC,0.00,VWS V14.01,2013-01-04 03:53:00,
2013-01-03 22:54:00,19.5,9.7,30.01,NW,315,0.0,0.0,65,0.00,,SKC,0.00,VWS V14.01,2013-01-04 03:54:00,
2013-01-03 22:55:00,19.5,9.7,30.01,NW,313,0.0,0.0,65,0.00,,SKC,0.00,VWS V14.01,2013-01-04 03:55:00,
2013-01-03 22:56:00,19.5,9.7,30.01,NW,313,0.0,0.0,65,0.00,,SKC,0.00,VWS V14.01,2013-01-04 03:56:00,
2013-01-03 22:58:00,19.4,9.6,30.01,NW,313,0.0,0.0,65,0.00,,SKC,0.00,VWS V14.01,2013-01-04 03:58:00,
2013-01-03 22:59:00,19.4,9.6,30.00,NW,313,0.0,0.0,65,0.00,,SKC,0.00,VWS V14.01,2013-01-04 03:59:00,
2013-01-03 23:00:00,19.4,9.6,30.00,NW,315,0.0,0.0,65,0.00,,SKC,0.00,VWS V14.01,2013-01-04 04:00:00,
2013-01-03 23:01:00,19.4,9.6,30.00,NW,315,0.0,0.0,65,0.00,,SKC,0.00,VWS V14.01,2013-01-04 04:01:00,
2013-01-03 23:03:00,19.4,9.9,30.00,NW,315,0.0,0.0,66,0.00,,SKC,0.00,VWS V14.01,2013-01-04 04:03:00,
2013-01-03 23:04:00,19.4,9.9,30.00,NW,313,0.0,0.0,66,0.00,,SKC,0.00,VWS V14.01,2013-01-04 04:04:00,
2013-01-03 23:05:00,18.1,9.7,29.98,NW,313,0.0,0.0,69,0.00,,SKC,0.00,VWS V14.01,2013-01-04 04:05:00,
2013-01-03 23:06:00,19.4,10.2,30.00,NW,313,0.0,0.0,67,0.00,,SKC,0.00,VWS V14.01,2013-01-04 04:06:00,
2013-01-03 23:08:00,19.2,10.1,30.00,NW,313,0.0,0.0,67,0.00,,SKC,0.00,VWS V14.01,2013-01-04 04:08:00,
2013-01-03 23:09:00,19.2,10.1,30.00,NW,313,0.0,0.0,67,0.00,,SKC,0.00,VWS V14.01,2013-01-04 04:09:00,
2013-01-03 23:10:00,19.2,10.1,30.00,NW,313,0.0,0.0,67,0.00,,SKC,0.00,VWS V14.01,2013-01-04 04:10:00,
2013-01-03 23:11:00,19.2,10.1,30.00,NW,311,0.0,0.0,67,0.00,,SKC,0.00,VWS V14.01,2013-01-04 04:11:00,
2013-01-03 23:12:00,19.2,10.1,30.00,NW,312,0.0,0.0,67,0.00,,SKC,0.00,VWS V14.01,2013-01-04 04:12:00,
2013-01-03 23:14:00,19.2,10.1,30.00,NW,312,0.0,0.0,67,0.00,,SKC,0.00,VWS V14.01,2013-01-04 04:14:00,
2013-01-03 23:15:00,17.8,10.0,29.97,NW,313,0.0,0.0,71,0.00,,SKC,0.00,VWS V14.01,2013-01-04 04:15:00,
2013-01-03 23:16:00,19.2,10.1,30.00,NW,312,0.0,0.0,67,0.00,,SKC,0.00,VWS V14.01,2013-01-04 04:16:00,
2013-01-03 23:17:00,19.2,10.1,30.00,NW,311,0.0,0.0,67,0.00,,SKC,0.00,VWS V14.01,2013-01-04 04:17:00,
2013-01-03 23:19:00,19.1,10.0,30.00,NW,312,0.0,0.0,67,0.00,,SKC,0.00,VWS V14.01,2013-01-04 04:19:00,
2013-01-03 23:20:00,19.1,10.3,30.00,NW,313,0.0,0.0,68,0.00,,SKC,0.00,VWS V14.01,2013-01-04 04:20:00,
2013-01-03 23:22:00,19.1,10.3,30.00,NW,312,0.0,0.0,68,0.00,,SKC,0.00,VWS V14.01,2013-01-04 04:22:00,
2013-01-03 23:24:00,19.1,10.3,30.00,NW,313,0.0,0.0,68,0.00,,SKC,0.00,VWS V14.01,2013-01-04 04:24:00,
2013-01-03 23:25:00,18.9,10.1,30.00,NW,312,0.0,0.0,68,0.00,,SKC,0.00,VWS V14.01,2013-01-04 04:25:00,
2013-01-03 23:27:00,18.9,10.1,30.00,NW,315,0.0,0.0,68,0.00,,SKC,0.00,VWS V14.01,2013-01-04 04:27:00,
2013-01-03 23:29:00,18.9,10.1,29.99,NW,313,0.0,0.0,68,0.00,,SKC,0.00,VWS V14.01,2013-01-04 04:29:00,
2013-01-03 23:30:00,18.9,10.1,29.99,NW,315,0.0,0.0,68,0.00,,SKC,0.00,VWS V14.01,2013-01-04 04:30:00,
2013-01-03 23:32:00,18.8,10.0,29.99,NW,313,0.0,0.0,68,0.00,,SKC,0.00,VWS V14.01,2013-01-04 04:32:00,
2013-01-03 23:33:00,18.8,10.0,29.99,NW,315,0.0,0.0,68,0.00,,SKC,0.00,VWS V14.01,2013-01-04 04:33:00,
2013-01-03 23:34:00,18.8,10.0,29.99,NW,312,0.0,0.0,68,0.00,,SKC,0.00,VWS V14.01,2013-01-04 04:34:00,
2013-01-03 23:35:00,18.8,10.0,29.99,NW,312,0.0,0.0,68,0.00,,SKC,0.00,VWS V14.01,2013-01-04 04:35:00,
2013-01-03 23:36:00,18.8,10.0,29.99,NW,315,0.0,0.0,68,0.00,,SKC,0.00,VWS V14.01,2013-01-04 04:36:00,
2013-01-03 23:38:00,18.6,9.8,29.99,NW,312,0.0,0.0,68,0.00,,SKC,0.00,VWS V14.01,2013-01-04 04:38:00,
2013-01-03 23:39:00,18.6,10.1,29.99,NW,315,0.0,0.0,69,0.00,,SKC,0.00,VWS V14.01,2013-01-04 04:39:00,
2013-01-03 23:40:00,16.5,9.4,29.96,NW,313,0.0,0.0,73,0.00,,SKC,0.00,VWS V14.01,2013-01-04 04:40:00,
2013-01-03 23:41:00,18.6,10.1,29.99,NW,316,0.0,0.0,69,0.00,,SKC,0.00,VWS V14.01,2013-01-04 04:41:00,
2013-01-03 23:43:00,18.4,9.6,29.99,NW,315,0.0,0.0,68,0.00,,SKC,0.00,VWS V14.01,2013-01-04 04:43:00,
2013-01-03 23:45:00,18.4,9.9,29.99,NW,315,0.0,0.0,69,0.00,,SKC,0.00,VWS V14.01,2013-01-04 04:45:00,
2013-01-03 23:47:00,18.4,9.9,29.99,NW,313,0.0,0.0,69,0.00,,SKC,0.00,VWS V14.01,2013-01-04 04:47:00,
2013-01-03 23:48:00,18.4,9.9,29.99,NW,315,0.0,0.0,69,0.00,,SKC,0.00,VWS V14.01,2013-01-04 04:48:00,
2013-01-03 23:50:00,18.4,10.3,29.99,NW,316,0.0,0.0,70,0.00,,SKC,0.00,VWS V14.01,2013-01-04 04:50:00,
2013-01-03 23:52:00,18.3,10.2,29.99,NW,315,0.0,0.0,70,0.00,,SKC,0.00,VWS V14.01,2013-01-04 04:52:00,
2013-01-03 23:53:00,18.3,9.9,29.99,NW,313,0.0,0.0,69,0.00,,SKC,0.00,VWS V14.01,2013-01-04 04:53:00,
2013-01-03 23:54:00,18.3,9.9,29.99,NW,313,0.0,0.0,69,0.00,,SKC,0.00,VWS V14.01,2013-01-04 04:54:00,
2013-01-03 23:55:00,18.3,9.9,29.99,NW,313,0.0,0.0,69,0.00,,SKC,0.00,VWS V14.01,2013-01-04 04:55:00,
2013-01-03 23:58:00,18.3,9.9,29.99,NW,315,0.0,0.0,69,0.00,,SKC,0.00,VWS V14.01,2013-01-04 04:58:00,
2013-01-03 23:59:00,18.3,10.2,29.98,NW,315,0.0,0.0,70,0.00,,SKC,0.00,VWS V14.01,2013-01-04 04:59:00,